Wetterdaten: Montag, 30.11.2015
Datum Zeit Temp. Aussen Temp. o. S. +5cm Feuchte Auss BlattFeu 1 Luftdruck Regen Sonnenschein Regendauer Solar Windben Empfang
30.11.2015 00:00 9,0 C 8,3 C 7,2 C 94 % 15 lf 1010,9 hPa 0,0 l/m 0 min 2 min 0 W/m 25,1 km/h (4 Bft) 95,74 %
30.11.2015 00:02 9,0 C 8,3 C 7,2 C 94 % 15 lf 1010,9 hPa 0,0 l/m 0 min 2 min 0 W/m 25,1 km/h (4 Bft) 97,30 %
30.11.2015 00:05 8,9 C 8,3 C 7,2 C 94 % 15 lf 1011,0 hPa 0,0 l/m 0 min 2 min 0 W/m 33,5 km/h (5 Bft) 98,59 %
30.11.2015 00:06 8,9 C 8,3 C 7,2 C 94 % 15 lf 1011,0 hPa 0,2 l/m 0 min 1 min 0 W/m 20,9 km/h (4 Bft) 100,00 %
30.11.2015 00:08 8,9 C 8,3 C 7,2 C 95 % 15 lf 1010,9 hPa 0,0 l/m 0 min 2 min 0 W/m 25,1 km/h (4 Bft) 100,00 %
30.11.2015 00:10 8,9 C 8,3 C 7,2 C 95 % 15 lf 1011,0 hPa 0,0 l/m 0 min 2 min 0 W/m 18,8 km/h (3 Bft) 97,87 %
30.11.2015 00:12 8,8 C 8,3 C 7,2 C 95 % 15 lf 1011,0 hPa 0,0 l/m 0 min 2 min 0 W/m 23,0 km/h (4 Bft) 100,00 %
30.11.2015 00:14 8,8 C 8,3 C 7,2 C 95 % 15 lf 1011,1 hPa 0,0 l/m 0 min 2 min 0 W/m 25,1 km/h (4 Bft) 97,87 %
30.11.2015 00:16 8,8 C 8,3 C 7,2 C 95 % 15 lf 1011,0 hPa 0,2 l/m 0 min 2 min 0 W/m 29,3 km/h (5 Bft) 100,00 %
30.11.2015 00:18 8,8 C 8,3 C 7,2 C 95 % 15 lf 1011,2 hPa 0,0 l/m 0 min 2 min 0 W/m 27,2 km/h (4 Bft) 97,83 %
30.11.2015 00:20 8,8 C 8,3 C 7,2 C 95 % 15 lf 1011,1 hPa 0,0 l/m 0 min 2 min 0 W/m 33,5 km/h (5 Bft) 97,87 %
30.11.2015 00:22 8,7 C 8,3 C 7,2 C 95 % 15 lf 1011,2 hPa 0,2 l/m 0 min 2 min 0 W/m 18,8 km/h (3 Bft) 97,87 %
30.11.2015 00:24 8,7 C 8,3 C 7,2 C 95 % 15 lf 1011,2 hPa 0,0 l/m 0 min 2 min 0 W/m 20,9 km/h (4 Bft) 97,87 %
30.11.2015 00:26 8,7 C 8,3 C 7,2 C 95 % 15 lf 1011,3 hPa 0,0 l/m 0 min 2 min 0 W/m 27,2 km/h (4 Bft) 97,87 %
30.11.2015 00:28 8,7 C 8,3 C 7,2 C 95 % 15 lf 1011,3 hPa 0,0 l/m 0 min 2 min 0 W/m 20,9 km/h (4 Bft) 95,74 %
30.11.2015 00:30 8,7 C 8,3 C 7,2 C 95 % 15 lf 1011,3 hPa 0,0 l/m 0 min 2 min 0 W/m 18,8 km/h (3 Bft) 93,48 %
30.11.2015 00:32 8,7 C 8,3 C 7,2 C 95 % 15 lf 1011,2 hPa 0,0 l/m 0 min 0 min 0 W/m 20,9 km/h (4 Bft) 95,74 %
30.11.2015 00:34 8,7 C 8,3 C 7,2 C 95 % 15 lf 1011,3 hPa 0,2 l/m 0 min 0 min 0 W/m 25,1 km/h (4 Bft) 89,36 %
30.11.2015 00:36 8,7 C 8,3 C 7,2 C 95 % 15 lf 1011,2 hPa 0,0 l/m 0 min 0 min 0 W/m 29,3 km/h (5 Bft) 97,87 %
30.11.2015 00:38 8,7 C 8,3 C 7,2 C 95 % 15 lf 1011,2 hPa 0,0 l/m 0 min 0 min 0 W/m 29,3 km/h (5 Bft) 97,87 %
30.11.2015 00:40 8,7 C 8,3 C 7,2 C 95 % 15 lf 1011,3 hPa 0,0 l/m 0 min 2 min 0 W/m 20,9 km/h (4 Bft) 93,62 %
30.11.2015 00:42 8,7 C 8,3 C 7,2 C 96 % 15 lf 1011,4 hPa 0,0 l/m 0 min 2 min 0 W/m 29,3 km/h (5 Bft) 93,48 %
30.11.2015 00:44 8,7 C 8,3 C 7,2 C 96 % 15 lf 1011,4 hPa 0,0 l/m 0 min 0 min 0 W/m 16,7 km/h (3 Bft) 93,62 %
30.11.2015 00:46 8,7 C 8,3 C 7,2 C 96 % 15 lf 1011,3 hPa 0,0 l/m 0 min 0 min 0 W/m 18,8 km/h (3 Bft) 95,74 %
30.11.2015 00:48 8,6 C 8,3 C 7,2 C 96 % 15 lf 1011,3 hPa 0,0 l/m 0 min 0 min 0 W/m 29,3 km/h (5 Bft) 95,74 %
30.11.2015 00:50 8,6 C 8,3 C 7,2 C 96 % 15 lf 1011,4 hPa 0,0 l/m 0 min 0 min 0 W/m 25,1 km/h (4 Bft) 95,74 %
30.11.2015 00:52 8,6 C 8,3 C 7,2 C 96 % 15 lf 1011,5 hPa 0,0 l/m 0 min 0 min 0 W/m 20,9 km/h (4 Bft) 93,62 %
30.11.2015 00:54 8,6 C 8,3 C 7,2 C 96 % 15 lf 1011,6 hPa 0,0 l/m 0 min 0 min 0 W/m 23,0 km/h (4 Bft) 95,65 %
30.11.2015 00:56 8,6 C 8,3 C 7,2 C 96 % 15 lf 1011,6 hPa 0,0 l/m 0 min 0 min 0 W/m 27,2 km/h (4 Bft) 97,87 %
30.11.2015 00:58 8,6 C 8,3 C 7,2 C 96 % 15 lf 1011,6 hPa 0,0 l/m 0 min 0 min 0 W/m 27,2 km/h (4 Bft) 95,74 %
30.11.2015 01:00 8,6 C 8,3 C 7,2 C 96 % 15 lf 1011,6 hPa 0,0 l/m 0 min 0 min 0 W/m 29,3 km/h (5 Bft) 93,62 %
30.11.2015 01:02 8,6 C 8,3 C 7,2 C 96 % 15 lf 1011,5 hPa 0,0 l/m 0 min 0 min 0 W/m 25,1 km/h (4 Bft) 97,87 %
30.11.2015 01:04 8,6 C 8,3 C 7,2 C 96 % 15 lf 1011,6 hPa 0,0 l/m 0 min 0 min 0 W/m 25,1 km/h (4 Bft) 95,74 %
30.11.2015 01:06 8,6 C 8,3 C 7,2 C 96 % 15 lf 1011,6 hPa 0,0 l/m 0 min 0 min 0 W/m 23,0 km/h (4 Bft) 95,65 %
30.11.2015 01:08 8,6 C 8,3 C 7,2 C 96 % 15 lf 1011,6 hPa 0,0 l/m 0 min 0 min 0 W/m 31,4 km/h (5 Bft) 95,74 %
30.11.2015 01:10 8,6 C 8,3 C 7,2 C 96 % 15 lf 1011,6 hPa 0,0 l/m 0 min 0 min 0 W/m 25,1 km/h (4 Bft) 93,62 %
30.11.2015 01:12 8,6 C 8,3 C 6,7 C 96 % 15 lf 1011,6 hPa 0,0 l/m 0 min 0 min 0 W/m 27,2 km/h (4 Bft) 93,62 %
30.11.2015 01:14 8,6 C 8,3 C 6,7 C 96 % 15 lf 1011,8 hPa 0,0 l/m 0 min 0 min 0 W/m 25,1 km/h (4 Bft) 93,62 %
30.11.2015 01:16 8,6 C 8,3 C 6,7 C 96 % 15 lf 1011,8 hPa 0,0 l/m 0 min 0 min 0 W/m 18,8 km/h (3 Bft) 95,74 %
30.11.2015 01:18 8,6 C 8,3 C 6,7 C 96 % 15 lf 1011,8 hPa 0,0 l/m 0 min 0 min 0 W/m 27,2 km/h (4 Bft) 93,48 %
30.11.2015 01:20 8,5 C 8,3 C 6,7 C 96 % 15 lf 1011,8 hPa 0,0 l/m 0 min 0 min 0 W/m 25,1 km/h (4 Bft) 91,49 %
30.11.2015 01:22 8,5 C 8,3 C 6,7 C 96 % 15 lf 1011,8 hPa 0,0 l/m 0 min 0 min 0 W/m 25,1 km/h (4 Bft) 91,49 %
30.11.2015 01:24 8,5 C 8,3 C 6,7 C 96 % 15 lf 1011,9 hPa 0,0 l/m 0 min 0 min 0 W/m 23,0 km/h (4 Bft) 91,49 %
30.11.2015 01:26 8,5 C 8,3 C 6,7 C 96 % 15 lf 1011,9 hPa 0,0 l/m 0 min 0 min 0 W/m 35,6 km/h (5 Bft) 97,87 %
30.11.2015 01:28 8,5 C 8,3 C 6,7 C 96 % 15 lf 1011,9 hPa 0,0 l/m 0 min 0 min 0 W/m 29,3 km/h (5 Bft) 93,62 %
30.11.2015 01:30 8,5 C 8,3 C 6,7 C 96 % 15 lf 1012,0 hPa 0,0 l/m 0 min 0 min 0 W/m 27,2 km/h (4 Bft) 95,65 %
30.11.2015 01:32 8,5 C 8,3 C 6,7 C 96 % 15 lf 1012,0 hPa 0,0 l/m 0 min 0 min 0 W/m 37,7 km/h (5 Bft) 95,74 %
30.11.2015 01:34 8,6 C 8,3 C 6,7 C 96 % 15 lf 1012,0 hPa 0,0 l/m 0 min 0 min 0 W/m 27,2 km/h (4 Bft) 97,87 %
30.11.2015 01:36 8,6 C 8,3 C 6,7 C 96 % 15 lf 1012,1 hPa 0,0 l/m 0 min 0 min 0 W/m 18,8 km/h (3 Bft) 95,74 %
30.11.2015 01:38 8,6 C 8,3 C 6,7 C 96 % 15 lf 1012,3 hPa 0,0 l/m 0 min 0 min 0 W/m 33,5 km/h (5 Bft) 97,87 %
30.11.2015 01:40 8,6 C 8,3 C 6,7 C 96 % 15 lf 1012,3 hPa 0,0 l/m 0 min 0 min 0 W/m 18,8 km/h (3 Bft) 93,48 %
30.11.2015 01:42 8,6 C 8,3 C 6,7 C 96 % 15 lf 1012,3 hPa 0,0 l/m 0 min 0 min 0 W/m 33,5 km/h (5 Bft) 91,49 %
30.11.2015 01:44 8,6 C 8,3 C 6,7 C 96 % 15 lf 1012,4 hPa 0,0 l/m 0 min 0 min 0 W/m 31,4 km/h (5 Bft) 95,74 %
30.11.2015 01:46 8,6 C 8,3 C 6,7 C 96 % 15 lf 1012,4 hPa 0,0 l/m 0 min 0 min 0 W/m 31,4 km/h (5 Bft) 95,74 %
30.11.2015 01:48 8,6 C 8,3 C 6,7 C 96 % 15 lf 1012,4 hPa 0,0 l/m 0 min 0 min 0 W/m 33,5 km/h (5 Bft) 95,74 %
30.11.2015 01:50 8,6 C 8,3 C 6,7 C 96 % 15 lf 1012,3 hPa 0,0 l/m 0 min 0 min 0 W/m 41,8 km/h (6 Bft) 97,87 %
30.11.2015 01:52 8,6 C 8,3 C 6,7 C 96 % 15 lf 1012,4 hPa 0,0 l/m 0 min 0 min 0 W/m 25,1 km/h (4 Bft) 95,65 %
30.11.2015 01:54 8,7 C 8,3 C 6,7 C 96 % 15 lf 1012,4 hPa 0,0 l/m 0 min 0 min 0 W/m 29,3 km/h (5 Bft) 97,87 %
30.11.2015 01:56 8,6 C 8,3 C 6,7 C 96 % 15 lf 1012,5 hPa 0,0 l/m 0 min 0 min 0 W/m 27,2 km/h (4 Bft) 100,00 %
30.11.2015 01:58 8,7 C 8,3 C 6,7 C 96 % 15 lf 1012,5 hPa 0,0 l/m 0 min 0 min 0 W/m 33,5 km/h (5 Bft) 97,87 %
30.11.2015 02:00 8,7 C 8,3 C 7,2 C 96 % 15 lf 1012,7 hPa 0,0 l/m 0 min 0 min 0 W/m 27,2 km/h (4 Bft) 89,36 %
30.11.2015 02:02 8,7 C 8,3 C 7,2 C 96 % 15 lf 1012,7 hPa 0,0 l/m 0 min 0 min 0 W/m 27,2 km/h (4 Bft) 95,74 %
30.11.2015 02:04 8,7 C 8,3 C 7,2 C 96 % 15 lf 1012,7 hPa 0,0 l/m 0 min 0 min 0 W/m 39,7 km/h (6 Bft) 100,00 %
30.11.2015 02:06 8,7 C 8,3 C 7,2 C 96 % 15 lf 1012,8 hPa 0,0 l/m 0 min 0 min 0 W/m 25,1 km/h (4 Bft) 97,87 %
30.11.2015 02:08 8,7 C 8,3 C 7,2 C 96 % 15 lf 1013,0 hPa 0,0 l/m 0 min 0 min 0 W/m 35,6 km/h (5 Bft) 93,62 %
30.11.2015 02:10 8,7 C 8,3 C 7,2 C 96 % 15 lf 1013,0 hPa 0,0 l/m 0 min 2 min 0 W/m 23,0 km/h (4 Bft) 97,87 %
30.11.2015 02:12 8,7 C 8,3 C 7,2 C 96 % 15 lf 1013,1 hPa 0,0 l/m 0 min 0 min 0 W/m 23,0 km/h (4 Bft) 95,74 %
30.11.2015 02:14 8,8 C 8,3 C 7,2 C 96 % 15 lf 1013,2 hPa 0,0 l/m 0 min 0 min 0 W/m 33,5 km/h (5 Bft) 95,74 %
30.11.2015 02:16 8,8 C 8,3 C 6,7 C 96 % 15 lf 1013,2 hPa 0,0 l/m 0 min 0 min 0 W/m 35,6 km/h (5 Bft) 95,65 %
30.11.2015 02:18 8,8 C 8,3 C 6,7 C 95 % 15 lf 1013,2 hPa 0,0 l/m 0 min 0 min 0 W/m 25,1 km/h (4 Bft) 95,74 %
30.11.2015 02:20 8,8 C 8,3 C 6,7 C 95 % 15 lf 1013,4 hPa 0,0 l/m 0 min 0 min 0 W/m 31,4 km/h (5 Bft) 93,62 %
30.11.2015 02:22 8,8 C 8,3 C 6,7 C 95 % 15 lf 1013,4 hPa 0,0 l/m 0 min 0 min 0 W/m 25,1 km/h (4 Bft) 95,74 %
30.11.2015 02:24 8,8 C 8,3 C 6,7 C 95 % 14 lf 1013,5 hPa 0,0 l/m 0 min 0 min 0 W/m 31,4 km/h (5 Bft) 95,74 %
30.11.2015 02:26 8,8 C 8,3 C 6,7 C 95 % 14 lf 1013,5 hPa 0,0 l/m 0 min 0 min 0 W/m 25,1 km/h (4 Bft) 95,74 %
30.11.2015 02:28 8,8 C 8,3 C 6,7 C 94 % 14 lf 1013,4 hPa 0,0 l/m 0 min 0 min 0 W/m 20,9 km/h (4 Bft) 95,56 %
30.11.2015 02:30 8,8 C 8,3 C 6,7 C 94 % 13 lf 1013,5 hPa 0,0 l/m 0 min 0 min 0 W/m 27,2 km/h (4 Bft) 91,49 %
30.11.2015 02:32 8,7 C 8,3 C 6,7 C 94 % 13 lf 1013,5 hPa 0,0 l/m 0 min 0 min 0 W/m 41,8 km/h (6 Bft) 95,74 %
30.11.2015 02:34 8,7 C 8,3 C 6,7 C 94 % 13 lf 1013,5 hPa 0,0 l/m 0 min 0 min 0 W/m 39,7 km/h (6 Bft) 95,74 %
30.11.2015 02:36 8,7 C 7,8 C 6,7 C 94 % 13 lf 1013,7 hPa 0,0 l/m 0 min 0 min 0 W/m 25,1 km/h (4 Bft) 95,74 %
30.11.2015 02:38 8,7 C 7,8 C 6,7 C 93 % 12 lf 1013,8 hPa 0,0 l/m 0 min 0 min 0 W/m 33,5 km/h (5 Bft) 95,74 %
30.11.2015 02:40 8,7 C 7,8 C 6,7 C 93 % 12 lf 1013,7 hPa 0,0 l/m 0 min 0 min 0 W/m 29,3 km/h (5 Bft) 89,13 %
30.11.2015 02:42 8,7 C 8,3 C 6,7 C 93 % 11 lf 1013,7 hPa 0,0 l/m 0 min 0 min 0 W/m 31,4 km/h (5 Bft) 97,87 %
30.11.2015 02:44 8,7 C 8,3 C 6,7 C 92 % 10 lf 1013,6 hPa 0,0 l/m 0 min 0 min 0 W/m 29,3 km/h (5 Bft) 95,74 %
30.11.2015 02:46 8,7 C 7,8 C 6,7 C 92 % 10 lf 1013,9 hPa 0,0 l/m 0 min 0 min 0 W/m 31,4 km/h (5 Bft) 97,87 %
30.11.2015 02:48 8,7 C 7,8 C 6,1 C 92 % 9 lf 1013,9 hPa 0,0 l/m 0 min 0 min 0 W/m 31,4 km/h (5 Bft) 97,87 %
30.11.2015 02:50 8,7 C 7,8 C 6,1 C 91 % 9 lf 1013,8 hPa 0,0 l/m 0 min 0 min 0 W/m 31,4 km/h (5 Bft) 93,48 %
30.11.2015 02:52 8,7 C 7,8 C 6,1 C 91 % 9 lf 1013,7 hPa 0,0 l/m 0 min 0 min 0 W/m 33,5 km/h (5 Bft) 95,74 %
30.11.2015 02:54 8,7 C 7,8 C 6,1 C 90 % 8 lf 1013,9 hPa 0,0 l/m 0 min 0 min 0 W/m 37,7 km/h (5 Bft) 97,87 %
30.11.2015 02:56 8,7 C 7,8 C 6,1 C 90 % 8 lf 1013,8 hPa 0,0 l/m 0 min 0 min 0 W/m 31,4 km/h (5 Bft) 97,87 %
30.11.2015 02:58 8,7 C 7,8 C 6,1 C 90 % 7 lf 1013,7 hPa 0,0 l/m 0 min 0 min 0 W/m 25,1 km/h (4 Bft) 95,74 %
30.11.2015 03:00 8,7 C 7,8 C 6,1 C 89 % 7 lf 1013,9 hPa 0,0 l/m 0 min 0 min 0 W/m 39,7 km/h (6 Bft) 97,87 %
30.11.2015 03:02 8,7 C 7,8 C 6,1 C 89 % 6 lf 1013,9 hPa 0,0 l/m 0 min 0 min 0 W/m 25,1 km/h (4 Bft) 95,65 %
30.11.2015 03:04 8,7 C 7,8 C 6,1 C 88 % 5 lf 1013,9 hPa 0,0 l/m 0 min 0 min 0 W/m 27,2 km/h (4 Bft) 97,87 %
30.11.2015 03:06 8,7 C 7,8 C 6,1 C 88 % 4 lf 1013,9 hPa 0,0 l/m 0 min 0 min 0 W/m 27,2 km/h (4 Bft) 97,87 %
30.11.2015 03:08 8,7 C 7,8 C 6,1 C 88 % 4 lf 1014,0 hPa 0,0 l/m 0 min 0 min 0 W/m 18,8 km/h (3 Bft) 91,49 %
30.11.2015 03:10 8,7 C 7,8 C 6,1 C 88 % 4 lf 1014,0 hPa 0,0 l/m 0 min 0 min 0 W/m 23,0 km/h (4 Bft) 95,74 %
30.11.2015 03:12 8,7 C 7,8 C 6,1 C 88 % 4 lf 1014,0 hPa 0,0 l/m 0 min 0 min 0 W/m 23,0 km/h (4 Bft) 97,87 %
30.11.2015 03:14 8,7 C 7,8 C 6,1 C 87 % 4 lf 1014,0 hPa 0,0 l/m 0 min 0 min 0 W/m 27,2 km/h (4 Bft) 97,83 %
30.11.2015 03:16 8,7 C 7,8 C 6,1 C 87 % 3 lf 1013,9 hPa 0,0 l/m 0 min 0 min 0 W/m 27,2 km/h (4 Bft) 97,87 %
30.11.2015 03:18 8,7 C 7,8 C 6,1 C 87 % 3 lf 1014,0 hPa 0,0 l/m 0 min 0 min 0 W/m 20,9 km/h (4 Bft) 97,87 %
30.11.2015 03:20 8,7 C 7,8 C 6,1 C 87 % 3 lf 1014,0 hPa 0,0 l/m 0 min 0 min 0 W/m 25,1 km/h (4 Bft) 95,74 %
30.11.2015 03:22 8,7 C 7,8 C 6,1 C 87 % 2 lf 1014,1 hPa 0,0 l/m 0 min 0 min 0 W/m 31,4 km/h (5 Bft) 93,62 %
30.11.2015 03:24 8,6 C 7,8 C 6,1 C 87 % 2 lf 1014,1 hPa 0,0 l/m 0 min 0 min 0 W/m 25,1 km/h (4 Bft) 91,49 %
30.11.2015 03:26 8,7 C 7,8 C 6,1 C 87 % 1 lf 1014,2 hPa 0,0 l/m 0 min 0 min 0 W/m 27,2 km/h (4 Bft) 95,65 %
30.11.2015 03:28 8,7 C 7,8 C 6,1 C 87 % 1 lf 1014,2 hPa 0,0 l/m 0 min 0 min 0 W/m 25,1 km/h (4 Bft) 95,74 %
30.11.2015 03:30 8,6 C 7,8 C 6,1 C 87 % 1 lf 1014,2 hPa 0,0 l/m 0 min 0 min 0 W/m 27,2 km/h (4 Bft) 97,87 %
30.11.2015 03:32 8,7 C 7,8 C 6,1 C 87 % 1 lf 1014,3 hPa 0,0 l/m 0 min 0 min 0 W/m 25,1 km/h (4 Bft) 95,74 %
30.11.2015 03:34 8,7 C 7,8 C 6,1 C 87 % 0 lf 1014,3 hPa 0,0 l/m 0 min 0 min 0 W/m 29,3 km/h (5 Bft) 93,62 %
30.11.2015 03:36 8,6 C 7,8 C 6,1 C 87 % 0 lf 1014,3 hPa 0,0 l/m 0 min 0 min 0 W/m 23,0 km/h (4 Bft) 95,74 %
30.11.2015 03:38 8,7 C 7,8 C 6,1 C 87 % 0 lf 1014,3 hPa 0,0 l/m 0 min 0 min 0 W/m 20,9 km/h (4 Bft) 97,83 %
30.11.2015 03:40 8,6 C 7,8 C 6,1 C 87 % 0 lf 1014,3 hPa 0,0 l/m 0 min 0 min 0 W/m 20,9 km/h (4 Bft) 93,62 %
30.11.2015 03:42 8,6 C 7,8 C 6,1 C 87 % 0 lf 1014,4 hPa 0,0 l/m 0 min 0 min 0 W/m 31,4 km/h (5 Bft) 93,62 %
30.11.2015 03:44 8,6 C 7,8 C 6,1 C 87 % 0 lf 1014,4 hPa 0,0 l/m 0 min 0 min 0 W/m 25,1 km/h (4 Bft) 95,74 %
30.11.2015 03:46 8,6 C 7,8 C 6,1 C 86 % 0 lf 1014,4 hPa 0,0 l/m 0 min 0 min 0 W/m 33,5 km/h (5 Bft) 97,87 %
30.11.2015 03:48 8,6 C 7,8 C 6,7 C 86 % 0 lf 1014,4 hPa 0,0 l/m 0 min 0 min 0 W/m 20,9 km/h (4 Bft) 97,87 %
30.11.2015 03:50 8,6 C 7,8 C 6,7 C 86 % 0 lf 1014,4 hPa 0,0 l/m 0 min 0 min 0 W/m 25,1 km/h (4 Bft) 97,83 %
30.11.2015 03:52 8,6 C 7,8 C 6,7 C 86 % 0 lf 1014,4 hPa 0,0 l/m 0 min 0 min 0 W/m 23,0 km/h (4 Bft) 93,62 %
30.11.2015 03:54 8,6 C 7,8 C 6,7 C 86 % 0 lf 1014,4 hPa 0,0 l/m 0 min 0 min 0 W/m 18,8 km/h (3 Bft) 93,62 %
30.11.2015 03:56 8,6 C 7,8 C 6,7 C 86 % 0 lf 1014,4 hPa 0,0 l/m 0 min 0 min 0 W/m 18,8 km/h (3 Bft) 95,74 %
30.11.2015 03:58 8,6 C 7,8 C 6,7 C 86 % 0 lf 1014,5 hPa 0,0 l/m 0 min 0 min 0 W/m 33,5 km/h (5 Bft) 91,49 %
30.11.2015 04:00 8,6 C 7,8 C 6,7 C 86 % 0 lf 1014,6 hPa 0,0 l/m 0 min 0 min 0 W/m 27,2 km/h (4 Bft) 95,74 %
30.11.2015 04:05 8,5 C 8,3 C 6,7 C 86 % 0 lf 1014,7 hPa 0,0 l/m 0 min 0 min 0 W/m 23,0 km/h (4 Bft) 96,49 %
30.11.2015 04:06 8,5 C 8,3 C 6,7 C 86 % 0 lf 1014,7 hPa 0,0 l/m 0 min 0 min 0 W/m 27,2 km/h (4 Bft) 91,30 %
30.11.2015 04:08 8,5 C 8,3 C 6,7 C 86 % 0 lf 1014,7 hPa 0,0 l/m 0 min 0 min 0 W/m 16,7 km/h (3 Bft) 91,49 %
30.11.2015 04:10 8,5 C 8,3 C 6,7 C 86 % 0 lf 1014,9 hPa 0,0 l/m 0 min 0 min 0 W/m 20,9 km/h (4 Bft) 95,74 %
30.11.2015 04:12 8,5 C 8,3 C 6,7 C 86 % 0 lf 1015,0 hPa 0,0 l/m 0 min 0 min 0 W/m 23,0 km/h (4 Bft) 95,65 %
30.11.2015 04:14 8,5 C 8,9 C 6,7 C 85 % 0 lf 1015,0 hPa 0,0 l/m 0 min 0 min 0 W/m 39,7 km/h (6 Bft) 95,74 %
30.11.2015 04:16 8,5 C 8,9 C 6,7 C 85 % 0 lf 1014,9 hPa 0,0 l/m 0 min 0 min 0 W/m 29,3 km/h (5 Bft) 95,74 %
30.11.2015 04:18 8,5 C 8,9 C 6,7 C 85 % 0 lf 1015,0 hPa 0,0 l/m 0 min 0 min 0 W/m 37,7 km/h (5 Bft) 93,62 %
30.11.2015 04:20 8,5 C 8,9 C 6,7 C 85 % 0 lf 1015,0 hPa 0,0 l/m 0 min 0 min 0 W/m 27,2 km/h (4 Bft) 95,74 %
30.11.2015 04:22 8,5 C 8,9 C 6,7 C 85 % 0 lf 1015,0 hPa 0,0 l/m 0 min 0 min 0 W/m 18,8 km/h (3 Bft) 97,87 %
30.11.2015 04:24 8,5 C 8,9 C 6,7 C 84 % 0 lf 1015,2 hPa 0,0 l/m 0 min 0 min 0 W/m 27,2 km/h (4 Bft) 91,30 %
30.11.2015 04:26 8,5 C 8,3 C 6,7 C 84 % 0 lf 1015,2 hPa 0,0 l/m 0 min 0 min 0 W/m 27,2 km/h (4 Bft) 95,74 %
30.11.2015 04:28 8,6 C 8,9 C 6,7 C 84 % 0 lf 1015,2 hPa 0,0 l/m 0 min 0 min 0 W/m 31,4 km/h (5 Bft) 95,74 %
30.11.2015 04:30 8,5 C 8,9 C 6,7 C 84 % 0 lf 1015,2 hPa 0,0 l/m 0 min 0 min 0 W/m 37,7 km/h (5 Bft) 95,74 %
30.11.2015 04:32 8,6 C 8,9 C 6,7 C 84 % 0 lf 1015,3 hPa 0,0 l/m 0 min 0 min 0 W/m 31,4 km/h (5 Bft) 95,74 %
30.11.2015 04:34 8,6 C 8,9 C 6,7 C 83 % 0 lf 1015,2 hPa 0,0 l/m 0 min 0 min 0 W/m 35,6 km/h (5 Bft) 95,74 %
30.11.2015 04:36 8,6 C 8,9 C 6,7 C 83 % 0 lf 1015,2 hPa 0,0 l/m 0 min 0 min 0 W/m 20,9 km/h (4 Bft) 97,83 %
30.11.2015 04:38 8,6 C 8,3 C 6,7 C 83 % 0 lf 1015,2 hPa 0,0 l/m 0 min 0 min 0 W/m 23,0 km/h (4 Bft) 97,87 %
30.11.2015 04:40 8,6 C 8,3 C 6,7 C 83 % 0 lf 1015,2 hPa 0,0 l/m 0 min 0 min 0 W/m 18,8 km/h (3 Bft) 95,74 %
30.11.2015 04:42 8,6 C 8,3 C 6,7 C 83 % 0 lf 1015,2 hPa 0,0 l/m 0 min 0 min 0 W/m 23,0 km/h (4 Bft) 95,74 %
30.11.2015 04:44 8,6 C 8,3 C 6,7 C 83 % 0 lf 1015,2 hPa 0,0 l/m 0 min 0 min 0 W/m 23,0 km/h (4 Bft) 93,62 %
30.11.2015 04:46 8,6 C 8,3 C 6,7 C 83 % 0 lf 1015,2 hPa 0,0 l/m 0 min 0 min 0 W/m 25,1 km/h (4 Bft) 97,87 %
30.11.2015 04:48 8,5 C 8,3 C 6,7 C 82 % 0 lf 1015,2 hPa 0,0 l/m 0 min 0 min 0 W/m 27,2 km/h (4 Bft) 95,65 %
30.11.2015 04:50 8,5 C 8,3 C 6,7 C 82 % 0 lf 1015,2 hPa 0,0 l/m 0 min 0 min 0 W/m 25,1 km/h (4 Bft) 95,74 %
30.11.2015 04:52 8,5 C 8,3 C 6,7 C 82 % 0 lf 1015,2 hPa 0,0 l/m 0 min 0 min 0 W/m 20,9 km/h (4 Bft) 93,62 %
30.11.2015 04:54 8,5 C 8,3 C 6,7 C 82 % 0 lf 1015,3 hPa 0,0 l/m 0 min 0 min 0 W/m 25,1 km/h (4 Bft) 95,74 %
30.11.2015 04:56 8,5 C 8,3 C 6,7 C 82 % 0 lf 1015,4 hPa 0,0 l/m 0 min 0 min 0 W/m 25,1 km/h (4 Bft) 95,74 %
30.11.2015 04:58 8,5 C 8,3 C 6,7 C 82 % 0 lf 1015,5 hPa 0,0 l/m 0 min 0 min 0 W/m 23,0 km/h (4 Bft) 95,74 %
30.11.2015 05:00 8,4 C 8,3 C 6,7 C 82 % 0 lf 1015,6 hPa 0,0 l/m 0 min 0 min 0 W/m 23,0 km/h (4 Bft) 93,48 %
30.11.2015 05:02 8,4 C 8,3 C 6,7 C 82 % 0 lf 1015,7 hPa 0,0 l/m 0 min 0 min 0 W/m 27,2 km/h (4 Bft) 97,87 %
30.11.2015 05:04 8,4 C 8,3 C 6,7 C 82 % 0 lf 1015,7 hPa 0,0 l/m 0 min 0 min 0 W/m 27,2 km/h (4 Bft) 100,00 %
30.11.2015 05:06 8,4 C 8,3 C 6,7 C 82 % 0 lf 1015,8 hPa 0,0 l/m 0 min 0 min 0 W/m 16,7 km/h (3 Bft) 97,87 %
30.11.2015 05:08 8,4 C 8,3 C 6,7 C 82 % 0 lf 1015,8 hPa 0,0 l/m 0 min 0 min 0 W/m 25,1 km/h (4 Bft) 97,87 %
30.11.2015 05:10 8,4 C 8,3 C 6,7 C 82 % 0 lf 1015,9 hPa 0,0 l/m 0 min 0 min 0 W/m 18,8 km/h (3 Bft) 100,00 %
30.11.2015 05:12 8,4 C 8,3 C 6,7 C 83 % 0 lf 1015,9 hPa 0,0 l/m 0 min 0 min 0 W/m 23,0 km/h (4 Bft) 100,00 %
30.11.2015 05:14 8,3 C 8,3 C 6,7 C 83 % 0 lf 1016,0 hPa 0,0 l/m 0 min 0 min 0 W/m 31,4 km/h (5 Bft) 95,74 %
30.11.2015 05:16 8,3 C 8,3 C 6,7 C 83 % 0 lf 1016,0 hPa 0,0 l/m 0 min 0 min 0 W/m 20,9 km/h (4 Bft) 95,74 %
30.11.2015 05:18 8,3 C 8,3 C 6,1 C 83 % 0 lf 1016,0 hPa 0,0 l/m 0 min 0 min 0 W/m 20,9 km/h (4 Bft) 97,87 %
30.11.2015 05:20 8,3 C 7,8 C 6,1 C 83 % 0 lf 1016,0 hPa 0,0 l/m 0 min 0 min 0 W/m 23,0 km/h (4 Bft) 97,87 %
30.11.2015 05:22 8,3 C 7,8 C 6,1 C 83 % 0 lf 1016,0 hPa 0,0 l/m 0 min 0 min 0 W/m 16,7 km/h (3 Bft) 100,00 %
30.11.2015 05:24 8,2 C 7,8 C 6,1 C 83 % 0 lf 1016,0 hPa 0,0 l/m 0 min 0 min 0 W/m 37,7 km/h (5 Bft) 97,87 %
30.11.2015 05:26 8,2 C 7,8 C 6,1 C 83 % 0 lf 1016,0 hPa 0,0 l/m 0 min 0 min 0 W/m 18,8 km/h (3 Bft) 97,87 %
30.11.2015 05:28 8,2 C 7,8 C 6,1 C 83 % 0 lf 1016,0 hPa 0,0 l/m 0 min 0 min 0 W/m 14,6 km/h (3 Bft) 100,00 %
30.11.2015 05:30 8,2 C 7,8 C 6,1 C 83 % 0 lf 1016,1 hPa 0,0 l/m 0 min 0 min 0 W/m 27,2 km/h (4 Bft) 100,00 %
30.11.2015 05:32 8,2 C 7,8 C 6,7 C 83 % 0 lf 1016,2 hPa 0,0 l/m 0 min 0 min 0 W/m 20,9 km/h (4 Bft) 100,00 %
30.11.2015 05:34 8,1 C 7,8 C 6,7 C 83 % 0 lf 1016,2 hPa 0,0 l/m 0 min 0 min 0 W/m 23,0 km/h (4 Bft) 100,00 %
30.11.2015 05:36 8,1 C 8,3 C 6,7 C 83 % 0 lf 1016,2 hPa 0,0 l/m 0 min 0 min 0 W/m 23,0 km/h (4 Bft) 100,00 %
30.11.2015 05:38 8,1 C 8,3 C 6,7 C 83 % 0 lf 1016,2 hPa 0,0 l/m 0 min 0 min 0 W/m 25,1 km/h (4 Bft) 100,00 %
30.11.2015 05:40 8,1 C 7,8 C 6,7 C 83 % 0 lf 1016,2 hPa 0,0 l/m 0 min 0 min 0 W/m 25,1 km/h (4 Bft) 95,74 %
30.11.2015 05:42 8,1 C 8,3 C 6,7 C 83 % 0 lf 1016,3 hPa 0,0 l/m 0 min 0 min 0 W/m 25,1 km/h (4 Bft) 95,74 %
30.11.2015 05:44 8,1 C 7,8 C 6,7 C 83 % 0 lf 1016,3 hPa 0,0 l/m 0 min 0 min 0 W/m 27,2 km/h (4 Bft) 100,00 %
30.11.2015 05:46 8,1 C 8,3 C 6,7 C 83 % 0 lf 1016,3 hPa 0,0 l/m 0 min 0 min 0 W/m 29,3 km/h (5 Bft) 97,83 %
30.11.2015 05:48 8,1 C 8,3 C 6,7 C 83 % 0 lf 1016,3 hPa 0,0 l/m 0 min 0 min 0 W/m 25,1 km/h (4 Bft) 97,87 %
30.11.2015 05:50 8,1 C 8,3 C 6,7 C 83 % 0 lf 1016,3 hPa 0,0 l/m 0 min 0 min 0 W/m 23,0 km/h (4 Bft) 95,74 %
30.11.2015 05:52 8,1 C 8,3 C 6,7 C 82 % 0 lf 1016,5 hPa 0,0 l/m 0 min 0 min 0 W/m 20,9 km/h (4 Bft) 95,74 %
30.11.2015 05:54 8,1 C 8,3 C 6,7 C 82 % 0 lf 1016,5 hPa 0,0 l/m 0 min 0 min 0 W/m 23,0 km/h (4 Bft) 93,62 %
30.11.2015 05:56 8,1 C 8,3 C 6,7 C 82 % 0 lf 1016,6 hPa 0,0 l/m 0 min 0 min 0 W/m 35,6 km/h (5 Bft) 95,74 %
30.11.2015 05:58 8,1 C 8,3 C 6,7 C 82 % 0 lf 1016,7 hPa 0,0 l/m 0 min 0 min 0 W/m 31,4 km/h (5 Bft) 97,83 %
30.11.2015 06:00 8,1 C 8,3 C 6,7 C 81 % 0 lf 1016,6 hPa 0,0 l/m 0 min 0 min 0 W/m 27,2 km/h (4 Bft) 93,62 %
30.11.2015 06:02 8,1 C 8,3 C 6,7 C 81 % 0 lf 1016,7 hPa 0,0 l/m 0 min 0 min 0 W/m 18,8 km/h (3 Bft) 95,74 %
30.11.2015 06:06 8,1 C 8,3 C 6,7 C 81 % 0 lf 1016,8 hPa 0,0 l/m 0 min 0 min 0 W/m 20,9 km/h (4 Bft) 96,84 %
30.11.2015 06:08 8,1 C 8,3 C 6,7 C 81 % 0 lf 1016,8 hPa 0,0 l/m 0 min 0 min 0 W/m 18,8 km/h (3 Bft) 95,74 %
30.11.2015 06:10 8,1 C 8,3 C 6,7 C 81 % 0 lf 1016,8 hPa 0,0 l/m 0 min 0 min 0 W/m 25,1 km/h (4 Bft) 93,48 %
30.11.2015 06:12 8,2 C 8,3 C 6,7 C 81 % 0 lf 1016,9 hPa 0,0 l/m 0 min 0 min 0 W/m 18,8 km/h (3 Bft) 91,49 %
30.11.2015 06:14 8,2 C 8,3 C 6,7 C 81 % 0 lf 1017,0 hPa 0,0 l/m 0 min 0 min 0 W/m 16,7 km/h (3 Bft) 95,74 %
30.11.2015 06:16 8,2 C 8,3 C 6,7 C 81 % 0 lf 1017,0 hPa 0,0 l/m 0 min 0 min 0 W/m 25,1 km/h (4 Bft) 93,62 %
30.11.2015 06:18 8,2 C 8,3 C 6,7 C 80 % 0 lf 1017,1 hPa 0,0 l/m 0 min 0 min 0 W/m 20,9 km/h (4 Bft) 95,74 %
30.11.2015 06:20 8,2 C 8,3 C 6,7 C 80 % 0 lf 1017,0 hPa 0,0 l/m 0 min 0 min 0 W/m 29,3 km/h (5 Bft) 97,87 %
30.11.2015 06:22 8,2 C 8,3 C 6,7 C 80 % 0 lf 1017,1 hPa 0,0 l/m 0 min 0 min 0 W/m 18,8 km/h (3 Bft) 93,48 %
30.11.2015 06:24 8,2 C 8,3 C 6,7 C 80 % 0 lf 1017,2 hPa 0,0 l/m 0 min 0 min 0 W/m 16,7 km/h (3 Bft) 97,87 %
30.11.2015 06:26 8,2 C 8,3 C 6,7 C 80 % 0 lf 1017,2 hPa 0,0 l/m 0 min 0 min 0 W/m 14,6 km/h (3 Bft) 95,74 %
30.11.2015 06:28 8,2 C 8,3 C 6,7 C 80 % 0 lf 1017,3 hPa 0,0 l/m 0 min 0 min 0 W/m 20,9 km/h (4 Bft) 93,62 %
30.11.2015 06:30 8,2 C 8,3 C 6,7 C 80 % 0 lf 1017,3 hPa 0,0 l/m 0 min 0 min 0 W/m 18,8 km/h (3 Bft) 93,62 %
30.11.2015 06:32 8,2 C 8,3 C 6,7 C 80 % 0 lf 1017,2 hPa 0,0 l/m 0 min 0 min 0 W/m 20,9 km/h (4 Bft) 95,65 %
30.11.2015 06:34 8,1 C 8,3 C 6,7 C 80 % 0 lf 1017,2 hPa 0,0 l/m 0 min 0 min 0 W/m 14,6 km/h (3 Bft) 93,62 %
30.11.2015 06:36 8,1 C 8,3 C 6,7 C 80 % 0 lf 1017,2 hPa 0,0 l/m 0 min 0 min 0 W/m 16,7 km/h (3 Bft) 95,74 %
30.11.2015 06:38 8,1 C 8,3 C 6,7 C 80 % 0 lf 1017,3 hPa 0,0 l/m 0 min 0 min 0 W/m 18,8 km/h (3 Bft) 93,62 %
30.11.2015 06:40 8,1 C 7,8 C 6,1 C 80 % 0 lf 1017,3 hPa 0,0 l/m 0 min 0 min 0 W/m 16,7 km/h (3 Bft) 95,74 %
30.11.2015 06:42 8,1 C 7,8 C 6,1 C 80 % 0 lf 1017,3 hPa 0,0 l/m 0 min 0 min 0 W/m 14,6 km/h (3 Bft) 93,62 %
30.11.2015 06:44 8,1 C 7,8 C 6,1 C 80 % 0 lf 1017,4 hPa 0,0 l/m 0 min 0 min 0 W/m 12,6 km/h (3 Bft) 91,30 %
30.11.2015 06:46 8,0 C 7,8 C 6,1 C 80 % 0 lf 1017,5 hPa 0,0 l/m 0 min 0 min 0 W/m 16,7 km/h (3 Bft) 93,62 %
30.11.2015 06:48 8,0 C 7,8 C 6,1 C 81 % 0 lf 1017,5 hPa 0,0 l/m 0 min 0 min 0 W/m 18,8 km/h (3 Bft) 93,62 %
30.11.2015 06:50 7,9 C 7,8 C 6,1 C 80 % 0 lf 1017,6 hPa 0,0 l/m 0 min 0 min 0 W/m 16,7 km/h (3 Bft) 95,74 %
30.11.2015 06:52 7,9 C 7,8 C 6,1 C 80 % 0 lf 1017,6 hPa 0,0 l/m 0 min 0 min 0 W/m 20,9 km/h (4 Bft) 97,87 %
30.11.2015 06:54 7,9 C 7,8 C 6,1 C 80 % 0 lf 1017,6 hPa 0,0 l/m 0 min 0 min 0 W/m 18,8 km/h (3 Bft) 95,74 %
30.11.2015 06:56 7,9 C 7,8 C 6,1 C 80 % 0 lf 1017,6 hPa 0,0 l/m 0 min 0 min 0 W/m 16,7 km/h (3 Bft) 97,83 %
30.11.2015 06:58 7,9 C 7,8 C 6,1 C 80 % 0 lf 1017,7 hPa 0,0 l/m 0 min 0 min 0 W/m 23,0 km/h (4 Bft) 97,87 %
30.11.2015 07:00 7,9 C 7,8 C 6,1 C 80 % 0 lf 1017,7 hPa 0,0 l/m 0 min 0 min 0 W/m 18,8 km/h (3 Bft) 93,62 %
30.11.2015 07:02 7,9 C 7,8 C 6,1 C 80 % 0 lf 1017,8 hPa 0,0 l/m 0 min 0 min 0 W/m 20,9 km/h (4 Bft) 91,49 %
30.11.2015 07:04 7,9 C 7,8 C 6,1 C 80 % 0 lf 1017,8 hPa 0,0 l/m 0 min 0 min 0 W/m 8,4 km/h (2 Bft) 97,87 %
30.11.2015 07:06 7,8 C 7,8 C 6,1 C 80 % 0 lf 1017,8 hPa 0,0 l/m 0 min 0 min 0 W/m 10,5 km/h (2 Bft) 97,87 %
30.11.2015 07:08 7,8 C 7,8 C 6,1 C 80 % 0 lf 1017,8 hPa 0,0 l/m 0 min 0 min 0 W/m 16,7 km/h (3 Bft) 100,00 %
30.11.2015 07:10 7,8 C 7,8 C 6,1 C 80 % 0 lf 1017,8 hPa 0,0 l/m 0 min 0 min 0 W/m 14,6 km/h (3 Bft) 97,87 %
30.11.2015 07:12 7,8 C 7,8 C 6,1 C 80 % 0 lf 1018,0 hPa 0,0 l/m 0 min 0 min 0 W/m 18,8 km/h (3 Bft) 95,74 %
30.11.2015 07:14 7,8 C 7,8 C 6,1 C 80 % 0 lf 1017,9 hPa 0,0 l/m 0 min 0 min 0 W/m 18,8 km/h (3 Bft) 95,74 %
30.11.2015 07:16 7,8 C 7,8 C 6,1 C 80 % 0 lf 1017,9 hPa 0,0 l/m 0 min 0 min 0 W/m 14,6 km/h (3 Bft) 95,74 %
30.11.2015 07:18 7,8 C 7,8 C 6,1 C 80 % 0 lf 1018,0 hPa 0,0 l/m 0 min 0 min 0 W/m 18,8 km/h (3 Bft) 93,62 %
30.11.2015 07:20 7,7 C 7,8 C 6,1 C 80 % 0 lf 1017,9 hPa 0,0 l/m 0 min 0 min 0 W/m 16,7 km/h (3 Bft) 93,48 %
30.11.2015 07:22 7,7 C 7,8 C 6,1 C 80 % 0 lf 1018,0 hPa 0,0 l/m 0 min 0 min 0 W/m 20,9 km/h (4 Bft) 95,74 %
30.11.2015 07:24 7,7 C 7,8 C 6,1 C 80 % 0 lf 1018,0 hPa 0,0 l/m 0 min 0 min 0 W/m 14,6 km/h (3 Bft) 93,62 %
30.11.2015 07:26 7,7 C 7,8 C 6,1 C 80 % 0 lf 1018,0 hPa 0,0 l/m 0 min 0 min 0 W/m 14,6 km/h (3 Bft) 93,62 %
30.11.2015 07:28 7,7 C 7,8 C 6,1 C 80 % 0 lf 1018,1 hPa 0,0 l/m 0 min 0 min 0 W/m 14,6 km/h (3 Bft) 93,62 %
30.11.2015 07:30 7,7 C 7,8 C 6,1 C 80 % 0 lf 1018,1 hPa 0,0 l/m 0 min 0 min 0 W/m 16,7 km/h (3 Bft) 95,65 %
30.11.2015 07:32 7,7 C 7,8 C 6,1 C 80 % 0 lf 1018,2 hPa 0,0 l/m 0 min 0 min 0 W/m 18,8 km/h (3 Bft) 91,49 %
30.11.2015 07:34 7,6 C 7,8 C 6,1 C 80 % 0 lf 1018,3 hPa 0,0 l/m 0 min 0 min 0 W/m 10,5 km/h (2 Bft) 95,74 %
30.11.2015 07:36 7,6 C 7,8 C 6,1 C 80 % 0 lf 1018,3 hPa 0,0 l/m 0 min 0 min 0 W/m 10,5 km/h (2 Bft) 91,49 %
30.11.2015 07:38 7,6 C 7,2 C 5,6 C 80 % 0 lf 1018,3 hPa 0,0 l/m 0 min 0 min 0 W/m 10,5 km/h (2 Bft) 95,74 %
30.11.2015 07:40 7,6 C 7,2 C 5,6 C 80 % 0 lf 1018,4 hPa 0,0 l/m 0 min 0 min 0 W/m 6,3 km/h (2 Bft) 95,74 %
30.11.2015 07:42 7,6 C 7,2 C 5,6 C 80 % 0 lf 1018,3 hPa 0,0 l/m 0 min 0 min 0 W/m 8,4 km/h (2 Bft) 95,65 %
30.11.2015 07:44 7,6 C 7,2 C 5,6 C 81 % 0 lf 1018,3 hPa 0,0 l/m 0 min 0 min 0 W/m 6,3 km/h (2 Bft) 93,62 %
30.11.2015 07:46 7,6 C 7,2 C 5,6 C 81 % 0 lf 1018,4 hPa 0,0 l/m 0 min 0 min 0 W/m 8,4 km/h (2 Bft) 93,62 %
30.11.2015 07:48 7,6 C 7,2 C 5,6 C 81 % 0 lf 1018,4 hPa 0,0 l/m 0 min 0 min 0 W/m 6,3 km/h (2 Bft) 95,74 %
30.11.2015 07:50 7,6 C 7,2 C 5,6 C 81 % 0 lf 1018,5 hPa 0,0 l/m 0 min 0 min 0 W/m 12,6 km/h (3 Bft) 97,87 %
30.11.2015 07:52 7,5 C 7,2 C 5,6 C 81 % 0 lf 1018,5 hPa 0,0 l/m 0 min 0 min 0 W/m 16,7 km/h (3 Bft) 93,62 %
30.11.2015 07:54 7,5 C 7,2 C 5,6 C 81 % 0 lf 1018,5 hPa 0,0 l/m 0 min 0 min 0 W/m 12,6 km/h (3 Bft) 95,74 %
30.11.2015 07:56 7,5 C 7,2 C 5,6 C 81 % 0 lf 1018,5 hPa 0,0 l/m 0 min 0 min 0 W/m 10,5 km/h (2 Bft) 93,48 %
30.11.2015 07:58 7,4 C 7,2 C 5,6 C 81 % 0 lf 1018,5 hPa 0,0 l/m 0 min 0 min 0 W/m 12,6 km/h (3 Bft) 93,62 %
30.11.2015 08:00 7,4 C 7,2 C 5,6 C 82 % 0 lf 1018,5 hPa 0,0 l/m 0 min 0 min 0 W/m 6,3 km/h (2 Bft) 93,62 %
30.11.2015 08:02 7,4 C 7,2 C 5,6 C 82 % 0 lf 1018,5 hPa 0,0 l/m 0 min 0 min 0 W/m 20,9 km/h (4 Bft) 93,62 %
30.11.2015 08:04 7,4 C 7,2 C 5,6 C 82 % 0 lf 1018,5 hPa 0,0 l/m 0 min 0 min 0 W/m 16,7 km/h (3 Bft) 97,87 %
30.11.2015 08:06 7,4 C 7,2 C 5,6 C 82 % 0 lf 1018,5 hPa 0,0 l/m 0 min 0 min 0 W/m 10,5 km/h (2 Bft) 91,30 %
30.11.2015 08:08 7,3 C 7,2 C 5,6 C 82 % 0 lf 1018,5 hPa 0,0 l/m 0 min 0 min 0 W/m 18,8 km/h (3 Bft) 95,74 %
30.11.2015 08:10 7,3 C 7,2 C 5,6 C 82 % 0 lf 1018,5 hPa 0,0 l/m 0 min 0 min 0 W/m 14,6 km/h (3 Bft) 100,00 %
30.11.2015 08:12 7,3 C 7,2 C 5,6 C 82 % 0 lf 1018,5 hPa 0,0 l/m 0 min 0 min 0 W/m 10,5 km/h (2 Bft) 97,87 %
30.11.2015 08:14 7,3 C 7,2 C 5,6 C 82 % 0 lf 1018,5 hPa 0,0 l/m 0 min 0 min 0 W/m 10,5 km/h (2 Bft) 100,00 %
30.11.2015 08:16 7,3 C 7,2 C 5,6 C 82 % 0 lf 1018,6 hPa 0,0 l/m 0 min 0 min 0 W/m 14,6 km/h (3 Bft) 97,87 %
30.11.2015 08:18 7,3 C 7,2 C 5,6 C 82 % 0 lf 1018,5 hPa 0,0 l/m 0 min 0 min 0 W/m 10,5 km/h (2 Bft) 100,00 %
30.11.2015 08:20 7,3 C 7,2 C 5,6 C 82 % 0 lf 1018,4 hPa 0,0 l/m 0 min 0 min 0 W/m 8,4 km/h (2 Bft) 97,87 %
30.11.2015 08:22 7,3 C 7,2 C 5,6 C 82 % 0 lf 1018,4 hPa 0,0 l/m 0 min 0 min 0 W/m 12,6 km/h (3 Bft) 100,00 %
30.11.2015 08:24 7,3 C 7,2 C 5,6 C 82 % 0 lf 1018,4 hPa 0,0 l/m 0 min 0 min 0 W/m 10,5 km/h (2 Bft) 93,62 %
30.11.2015 08:26 7,3 C 7,2 C 5,6 C 83 % 0 lf 1018,4 hPa 0,0 l/m 0 min 0 min 0 W/m 10,5 km/h (2 Bft) 95,74 %
30.11.2015 08:28 7,3 C 7,2 C 5,6 C 83 % 0 lf 1018,4 hPa 0,0 l/m 0 min 0 min 4 W/m 8,4 km/h (2 Bft) 100,00 %
30.11.2015 08:30 7,3 C 7,2 C 5,6 C 83 % 0 lf 1018,4 hPa 0,0 l/m 0 min 0 min 5 W/m 8,4 km/h (2 Bft) 97,83 %
30.11.2015 08:32 7,3 C 7,2 C 5,6 C 83 % 0 lf 1018,4 hPa 0,0 l/m 0 min 0 min 5 W/m 6,3 km/h (2 Bft) 97,87 %
30.11.2015 08:34 7,3 C 7,2 C 5,6 C 83 % 0 lf 1018,5 hPa 0,0 l/m 0 min 0 min 7 W/m 8,4 km/h (2 Bft) 97,87 %
30.11.2015 08:36 7,3 C 7,2 C 5,6 C 83 % 0 lf 1018,6 hPa 0,0 l/m 0 min 0 min 7 W/m 6,3 km/h (2 Bft) 100,00 %
30.11.2015 08:38 7,3 C 7,2 C 5,6 C 83 % 0 lf 1018,7 hPa 0,0 l/m 0 min 0 min 7 W/m 8,4 km/h (2 Bft) 100,00 %
30.11.2015 08:40 7,2 C 7,2 C 5,6 C 83 % 0 lf 1018,7 hPa 0,0 l/m 0 min 0 min 8 W/m 10,5 km/h (2 Bft) 100,00 %
30.11.2015 08:42 7,3 C 7,2 C 5,6 C 83 % 0 lf 1018,6 hPa 0,0 l/m 0 min 0 min 9 W/m 10,5 km/h (2 Bft) 95,65 %
30.11.2015 08:44 7,2 C 7,2 C 5,6 C 84 % 0 lf 1018,5 hPa 0,0 l/m 0 min 0 min 11 W/m 6,3 km/h (2 Bft) 97,87 %
30.11.2015 08:46 7,2 C 7,2 C 5,6 C 84 % 0 lf 1018,5 hPa 0,0 l/m 0 min 0 min 11 W/m 10,5 km/h (2 Bft) 97,87 %
30.11.2015 08:48 7,2 C 7,2 C 5,6 C 84 % 0 lf 1018,5 hPa 0,0 l/m 0 min 0 min 12 W/m 10,5 km/h (2 Bft) 100,00 %
30.11.2015 08:50 7,2 C 7,2 C 5,6 C 84 % 0 lf 1018,5 hPa 0,0 l/m 0 min 0 min 12 W/m 8,4 km/h (2 Bft) 95,74 %
30.11.2015 08:52 7,2 C 7,2 C 5,6 C 84 % 0 lf 1018,6 hPa 0,0 l/m 0 min 0 min 11 W/m 12,6 km/h (3 Bft) 97,83 %
30.11.2015 08:54 7,2 C 7,2 C 6,1 C 84 % 0 lf 1018,6 hPa 0,0 l/m 0 min 0 min 11 W/m 12,6 km/h (3 Bft) 100,00 %
30.11.2015 08:56 7,2 C 7,2 C 6,1 C 84 % 0 lf 1018,6 hPa 0,0 l/m 0 min 0 min 11 W/m 10,5 km/h (2 Bft) 97,87 %
30.11.2015 08:58 7,2 C 7,2 C 6,1 C 84 % 0 lf 1018,7 hPa 0,0 l/m 0 min 0 min 12 W/m 8,4 km/h (2 Bft) 89,36 %
30.11.2015 09:00 7,2 C 7,2 C 6,1 C 84 % 0 lf 1018,6 hPa 0,0 l/m 0 min 0 min 13 W/m 10,5 km/h (2 Bft) 95,74 %
30.11.2015 09:02 7,2 C 7,2 C 6,1 C 84 % 0 lf 1018,6 hPa 0,0 l/m 0 min 0 min 14 W/m 10,5 km/h (2 Bft) 97,87 %
30.11.2015 09:04 7,2 C 7,2 C 5,6 C 84 % 0 lf 1018,6 hPa 0,0 l/m 0 min 0 min 14 W/m 10,5 km/h (2 Bft) 97,83 %
30.11.2015 09:06 7,2 C 7,2 C 6,1 C 84 % 0 lf 1018,7 hPa 0,0 l/m 0 min 0 min 15 W/m 10,5 km/h (2 Bft) 95,74 %
30.11.2015 09:08 7,2 C 7,2 C 6,1 C 84 % 0 lf 1018,6 hPa 0,0 l/m 0 min 0 min 16 W/m 12,6 km/h (3 Bft) 97,87 %
30.11.2015 09:10 7,2 C 7,2 C 6,1 C 84 % 0 lf 1018,6 hPa 0,0 l/m 0 min 0 min 16 W/m 12,6 km/h (3 Bft) 95,74 %
30.11.2015 09:12 7,2 C 7,2 C 6,1 C 84 % 0 lf 1018,6 hPa 0,0 l/m 0 min 0 min 17 W/m 10,5 km/h (2 Bft) 95,74 %
30.11.2015 09:14 7,2 C 7,2 C 6,1 C 84 % 0 lf 1018,6 hPa 0,0 l/m 0 min 0 min 18 W/m 12,6 km/h (3 Bft) 97,87 %
30.11.2015 09:16 7,2 C 7,2 C 6,1 C 84 % 0 lf 1018,6 hPa 0,0 l/m 0 min 0 min 19 W/m 10,5 km/h (2 Bft) 91,30 %
30.11.2015 09:18 7,2 C 7,8 C 6,1 C 84 % 0 lf 1018,6 hPa 0,0 l/m 0 min 0 min 20 W/m 10,5 km/h (2 Bft) 97,87 %
30.11.2015 09:20 7,2 C 7,8 C 6,1 C 84 % 0 lf 1018,6 hPa 0,0 l/m 0 min 0 min 23 W/m 10,5 km/h (2 Bft) 97,87 %
30.11.2015 09:22 7,2 C 7,8 C 6,1 C 84 % 0 lf 1018,6 hPa 0,0 l/m 0 min 0 min 23 W/m 16,7 km/h (3 Bft) 95,74 %
30.11.2015 09:24 7,2 C 7,8 C 6,1 C 84 % 0 lf 1018,6 hPa 0,0 l/m 0 min 0 min 23 W/m 12,6 km/h (3 Bft) 97,87 %
30.11.2015 09:26 7,3 C 7,8 C 6,1 C 84 % 0 lf 1018,6 hPa 0,0 l/m 0 min 0 min 23 W/m 12,6 km/h (3 Bft) 93,62 %
30.11.2015 09:28 7,3 C 7,8 C 6,1 C 84 % 0 lf 1018,5 hPa 0,0 l/m 0 min 0 min 23 W/m 8,4 km/h (2 Bft) 97,83 %
30.11.2015 09:30 7,3 C 7,8 C 6,1 C 84 % 0 lf 1018,5 hPa 0,0 l/m 0 min 0 min 25 W/m 16,7 km/h (3 Bft) 91,49 %
30.11.2015 09:32 7,3 C 7,8 C 6,1 C 84 % 0 lf 1018,6 hPa 0,0 l/m 0 min 0 min 31 W/m 12,6 km/h (3 Bft) 95,74 %
30.11.2015 09:34 7,3 C 7,8 C 6,1 C 84 % 0 lf 1018,5 hPa 0,0 l/m 0 min 0 min 36 W/m 10,5 km/h (2 Bft) 95,74 %
30.11.2015 09:36 7,3 C 7,8 C 6,7 C 84 % 0 lf 1018,5 hPa 0,0 l/m 0 min 0 min 40 W/m 8,4 km/h (2 Bft) 95,74 %
30.11.2015 09:38 7,3 C 7,8 C 6,7 C 84 % 0 lf 1018,6 hPa 0,0 l/m 0 min 0 min 45 W/m 8,4 km/h (2 Bft) 95,74 %
30.11.2015 09:40 7,3 C 7,8 C 6,7 C 84 % 0 lf 1018,5 hPa 0,0 l/m 0 min 0 min 47 W/m 10,5 km/h (2 Bft) 97,83 %
30.11.2015 09:42 7,4 C 8,3 C 6,7 C 84 % 0 lf 1018,5 hPa 0,0 l/m 0 min 0 min 47 W/m 14,6 km/h (3 Bft) 97,87 %
30.11.2015 09:44 7,4 C 8,3 C 6,7 C 84 % 0 lf 1018,5 hPa 0,0 l/m 0 min 0 min 44 W/m 14,6 km/h (3 Bft) 100,00 %
30.11.2015 09:46 7,4 C 8,3 C 6,7 C 84 % 0 lf 1018,5 hPa 0,0 l/m 0 min 0 min 45 W/m 16,7 km/h (3 Bft) 93,62 %
30.11.2015 09:48 7,4 C 8,3 C 6,7 C 84 % 0 lf 1018,5 hPa 0,0 l/m 0 min 0 min 46 W/m 12,6 km/h (3 Bft) 98,00 %
30.11.2015 09:50 7,4 C 8,3 C 6,7 C 84 % 0 lf 1018,4 hPa 0,0 l/m 0 min 2 min 46 W/m 12,6 km/h (3 Bft) 97,83 %
30.11.2015 09:52 7,5 C 8,3 C 6,7 C 84 % 0 lf 1018,4 hPa 0,0 l/m 0 min 0 min 47 W/m 12,6 km/h (3 Bft) 97,87 %
30.11.2015 09:54 7,5 C 8,3 C 6,7 C 84 % 0 lf 1018,4 hPa 0,0 l/m 0 min 0 min 50 W/m 18,8 km/h (3 Bft) 97,87 %
30.11.2015 09:56 7,6 C 8,3 C 6,7 C 84 % 0 lf 1018,3 hPa 0,0 l/m 0 min 0 min 53 W/m 12,6 km/h (3 Bft) 97,87 %
30.11.2015 09:58 7,6 C 8,3 C 6,7 C 84 % 0 lf 1018,3 hPa 0,0 l/m 0 min 0 min 53 W/m 12,6 km/h (3 Bft) 95,74 %
30.11.2015 10:00 7,6 C 8,3 C 6,7 C 84 % 1 lf 1018,2 hPa 0,0 l/m 0 min 0 min 49 W/m 14,6 km/h (3 Bft) 100,00 %
30.11.2015 10:02 7,6 C 8,3 C 6,7 C 84 % 0 lf 1018,2 hPa 0,0 l/m 0 min 0 min 43 W/m 12,6 km/h (3 Bft) 100,00 %
30.11.2015 10:04 7,7 C 8,3 C 6,7 C 84 % 0 lf 1018,3 hPa 0,0 l/m 0 min 0 min 42 W/m 12,6 km/h (3 Bft) 100,00 %
30.11.2015 10:06 7,7 C 8,3 C 6,7 C 84 % 1 lf 1018,3 hPa 0,0 l/m 0 min 2 min 38 W/m 14,6 km/h (3 Bft) 97,87 %
30.11.2015 10:08 7,7 C 8,3 C 6,7 C 84 % 4 lf 1018,2 hPa 0,0 l/m 0 min 2 min 38 W/m 14,6 km/h (3 Bft) 97,87 %
30.11.2015 10:10 7,7 C 7,8 C 6,1 C 84 % 6 lf 1018,3 hPa 0,0 l/m 0 min 2 min 37 W/m 14,6 km/h (3 Bft) 95,74 %
30.11.2015 10:12 7,7 C 7,8 C 6,1 C 84 % 9 lf 1018,3 hPa 0,0 l/m 0 min 2 min 33 W/m 20,9 km/h (4 Bft) 100,00 %
30.11.2015 10:14 7,7 C 7,8 C 6,1 C 84 % 7 lf 1018,3 hPa 0,0 l/m 0 min 2 min 33 W/m 16,7 km/h (3 Bft) 97,83 %
30.11.2015 10:16 7,8 C 7,8 C 6,1 C 84 % 9 lf 1018,3 hPa 0,0 l/m 0 min 2 min 34 W/m 14,6 km/h (3 Bft) 97,87 %
30.11.2015 10:18 7,8 C 7,8 C 6,1 C 84 % 12 lf 1018,2 hPa 0,0 l/m 0 min 2 min 33 W/m 20,9 km/h (4 Bft) 100,00 %
30.11.2015 10:20 7,8 C 7,8 C 6,1 C 84 % 12 lf 1018,2 hPa 0,0 l/m 0 min 2 min 35 W/m 20,9 km/h (4 Bft) 97,87 %
30.11.2015 10:22 7,8 C 7,8 C 5,6 C 84 % 13 lf 1018,2 hPa 0,0 l/m 0 min 2 min 39 W/m 16,7 km/h (3 Bft) 97,87 %
30.11.2015 10:24 7,8 C 7,8 C 5,6 C 84 % 13 lf 1018,2 hPa 0,0 l/m 0 min 2 min 40 W/m 20,9 km/h (4 Bft) 97,83 %
30.11.2015 10:26 7,8 C 7,8 C 5,6 C 84 % 13 lf 1018,2 hPa 0,0 l/m 0 min 2 min 40 W/m 20,9 km/h (4 Bft) 89,36 %
30.11.2015 10:28 7,8 C 7,8 C 5,6 C 84 % 13 lf 1018,2 hPa 0,0 l/m 0 min 2 min 40 W/m 18,8 km/h (3 Bft) 95,74 %
30.11.2015 10:30 7,8 C 7,8 C 5,6 C 84 % 13 lf 1018,0 hPa 0,0 l/m 0 min 2 min 42 W/m 20,9 km/h (4 Bft) 95,74 %
30.11.2015 10:32 7,8 C 7,8 C 5,6 C 84 % 14 lf 1018,1 hPa 0,0 l/m 0 min 2 min 42 W/m 16,7 km/h (3 Bft) 95,74 %
30.11.2015 10:34 7,8 C 7,8 C 5,6 C 84 % 14 lf 1018,0 hPa 0,0 l/m 0 min 2 min 41 W/m 14,6 km/h (3 Bft) 97,87 %
30.11.2015 10:36 7,8 C 7,8 C 5,6 C 85 % 14 lf 1017,9 hPa 0,0 l/m 0 min 2 min 40 W/m 18,8 km/h (3 Bft) 95,65 %
30.11.2015 10:38 7,8 C 7,8 C 5,6 C 85 % 14 lf 1017,9 hPa 0,0 l/m 0 min 2 min 40 W/m 12,6 km/h (3 Bft) 95,74 %
30.11.2015 10:40 7,8 C 7,2 C 5,6 C 85 % 15 lf 1017,9 hPa 0,0 l/m 0 min 2 min 37 W/m 20,9 km/h (4 Bft) 95,74 %
30.11.2015 10:42 7,8 C 7,2 C 5,6 C 85 % 15 lf 1017,9 hPa 0,0 l/m 0 min 2 min 33 W/m 16,7 km/h (3 Bft) 89,36 %
30.11.2015 10:44 7,8 C 7,2 C 5,6 C 85 % 15 lf 1017,9 hPa 0,0 l/m 0 min 2 min 29 W/m 14,6 km/h (3 Bft) 93,62 %
30.11.2015 10:46 7,8 C 7,2 C 5,6 C 86 % 15 lf 1017,9 hPa 0,0 l/m 0 min 2 min 29 W/m 16,7 km/h (3 Bft) 95,74 %
30.11.2015 10:48 7,8 C 7,2 C 5,6 C 86 % 15 lf 1017,9 hPa 0,0 l/m 0 min 2 min 32 W/m 8,4 km/h (2 Bft) 93,48 %
30.11.2015 10:50 7,8 C 6,7 C 5,6 C 86 % 15 lf 1017,9 hPa 0,2 l/m 0 min 2 min 32 W/m 12,6 km/h (3 Bft) 95,74 %
30.11.2015 10:52 7,8 C 6,7 C 5,6 C 86 % 15 lf 1018,0 hPa 0,0 l/m 0 min 2 min 31 W/m 8,4 km/h (2 Bft) 95,74 %
30.11.2015 10:54 7,8 C 6,7 C 5,6 C 86 % 15 lf 1018,0 hPa 0,0 l/m 0 min 2 min 27 W/m 10,5 km/h (2 Bft) 95,74 %
30.11.2015 10:56 7,8 C 6,7 C 5,6 C 86 % 15 lf 1018,0 hPa 0,0 l/m 0 min 2 min 31 W/m 14,6 km/h (3 Bft) 91,49 %
30.11.2015 10:58 7,8 C 6,7 C 5,6 C 87 % 15 lf 1017,9 hPa 0,0 l/m 0 min 2 min 39 W/m 12,6 km/h (3 Bft) 93,62 %
30.11.2015 11:00 7,8 C 6,7 C 5,6 C 87 % 15 lf 1017,9 hPa 0,2 l/m 0 min 2 min 41 W/m 8,4 km/h (2 Bft) 93,48 %
30.11.2015 11:02 7,8 C 6,7 C 5,6 C 87 % 15 lf 1017,8 hPa 0,0 l/m 0 min 2 min 42 W/m 8,4 km/h (2 Bft) 93,62 %
30.11.2015 11:04 7,8 C 6,7 C 5,6 C 88 % 15 lf 1017,8 hPa 0,0 l/m 0 min 2 min 38 W/m 6,3 km/h (2 Bft) 95,74 %
30.11.2015 11:06 7,8 C 6,7 C 5,6 C 88 % 15 lf 1017,8 hPa 0,0 l/m 0 min 2 min 34 W/m 10,5 km/h (2 Bft) 93,62 %
30.11.2015 11:08 7,8 C 6,7 C 5,6 C 88 % 15 lf 1017,7 hPa 0,0 l/m 0 min 2 min 36 W/m 8,4 km/h (2 Bft) 95,74 %
30.11.2015 11:10 7,8 C 6,7 C 5,6 C 88 % 15 lf 1017,8 hPa 0,0 l/m 0 min 2 min 30 W/m 8,4 km/h (2 Bft) 97,83 %
30.11.2015 11:12 7,8 C 6,7 C 5,6 C 89 % 15 lf 1017,7 hPa 0,0 l/m 0 min 2 min 37 W/m 10,5 km/h (2 Bft) 95,74 %
30.11.2015 11:14 7,8 C 6,7 C 5,6 C 89 % 15 lf 1017,7 hPa 0,2 l/m 0 min 2 min 33 W/m 8,4 km/h (2 Bft) 97,87 %
30.11.2015 11:16 7,8 C 6,7 C 5,6 C 89 % 15 lf 1017,7 hPa 0,0 l/m 0 min 2 min 32 W/m 4,2 km/h (1 Bft) 93,62 %
30.11.2015 11:18 7,7 C 7,2 C 5,6 C 89 % 15 lf 1017,7 hPa 0,0 l/m 0 min 2 min 43 W/m 8,4 km/h (2 Bft) 93,62 %
30.11.2015 11:20 7,7 C 7,2 C 6,1 C 89 % 15 lf 1017,7 hPa 0,0 l/m 0 min 2 min 43 W/m 10,5 km/h (2 Bft) 93,62 %
30.11.2015 11:22 7,7 C 7,2 C 6,1 C 89 % 15 lf 1017,6 hPa 0,0 l/m 0 min 0 min 53 W/m 8,4 km/h (2 Bft) 95,65 %
30.11.2015 11:24 7,7 C 7,2 C 6,1 C 90 % 15 lf 1017,5 hPa 0,0 l/m 0 min 0 min 56 W/m 10,5 km/h (2 Bft) 91,49 %
30.11.2015 11:26 7,7 C 7,2 C 6,1 C 90 % 15 lf 1017,5 hPa 0,0 l/m 0 min 2 min 56 W/m 14,6 km/h (3 Bft) 95,74 %
30.11.2015 11:28 7,7 C 7,2 C 6,1 C 90 % 15 lf 1017,4 hPa 0,0 l/m 0 min 2 min 58 W/m 14,6 km/h (3 Bft) 93,62 %
30.11.2015 11:30 7,7 C 7,2 C 6,1 C 90 % 15 lf 1017,3 hPa 0,0 l/m 0 min 2 min 55 W/m 12,6 km/h (3 Bft) 93,62 %
30.11.2015 11:32 7,7 C 7,2 C 6,1 C 91 % 15 lf 1017,3 hPa 0,0 l/m 0 min 2 min 51 W/m 10,5 km/h (2 Bft) 93,62 %
30.11.2015 11:34 7,8 C 7,2 C 6,1 C 91 % 15 lf 1017,2 hPa 0,0 l/m 0 min 2 min 54 W/m 14,6 km/h (3 Bft) 91,30 %
30.11.2015 11:36 7,8 C 7,2 C 6,1 C 91 % 15 lf 1017,2 hPa 0,0 l/m 0 min 2 min 56 W/m 12,6 km/h (3 Bft) 95,74 %
30.11.2015 11:38 7,8 C 7,2 C 6,1 C 91 % 15 lf 1017,2 hPa 0,2 l/m 0 min 2 min 55 W/m 12,6 km/h (3 Bft) 93,62 %
30.11.2015 11:40 7,8 C 7,2 C 6,1 C 91 % 15 lf 1017,1 hPa 0,0 l/m 0 min 2 min 56 W/m 6,3 km/h (2 Bft) 93,62 %
30.11.2015 11:42 7,8 C 7,2 C 6,7 C 92 % 15 lf 1017,0 hPa 0,0 l/m 0 min 2 min 56 W/m 14,6 km/h (3 Bft) 93,62 %
30.11.2015 11:44 7,8 C 7,2 C 6,7 C 92 % 15 lf 1017,0 hPa 0,0 l/m 0 min 2 min 52 W/m 10,5 km/h (2 Bft) 93,62 %
30.11.2015 11:46 7,8 C 7,8 C 6,7 C 92 % 15 lf 1016,9 hPa 0,0 l/m 0 min 2 min 47 W/m 10,5 km/h (2 Bft) 91,30 %
30.11.2015 11:48 7,8 C 7,8 C 6,7 C 92 % 15 lf 1016,9 hPa 0,0 l/m 0 min 2 min 46 W/m 10,5 km/h (2 Bft) 93,62 %
30.11.2015 11:50 7,8 C 7,8 C 6,7 C 92 % 15 lf 1016,8 hPa 0,0 l/m 0 min 2 min 39 W/m 12,6 km/h (3 Bft) 93,62 %
30.11.2015 11:52 7,9 C 7,8 C 6,7 C 93 % 15 lf 1016,8 hPa 0,0 l/m 0 min 2 min 36 W/m 14,6 km/h (3 Bft) 93,62 %
30.11.2015 11:54 7,9 C 7,8 C 6,7 C 93 % 15 lf 1016,7 hPa 0,0 l/m 0 min 2 min 40 W/m 14,6 km/h (3 Bft) 97,87 %
30.11.2015 11:56 7,9 C 7,8 C 6,7 C 93 % 15 lf 1016,6 hPa 0,2 l/m 0 min 2 min 41 W/m 12,6 km/h (3 Bft) 95,74 %
30.11.2015 11:58 7,9 C 7,8 C 6,7 C 93 % 15 lf 1016,5 hPa 0,0 l/m 0 min 2 min 44 W/m 10,5 km/h (2 Bft) 93,48 %
30.11.2015 12:00 7,9 C 7,8 C 6,7 C 93 % 15 lf 1016,5 hPa 0,0 l/m 0 min 2 min 48 W/m 8,4 km/h (2 Bft) 93,62 %
30.11.2015 12:02 7,9 C 7,8 C 6,7 C 93 % 15 lf 1016,5 hPa 0,0 l/m 0 min 2 min 44 W/m 10,5 km/h (2 Bft) 97,87 %
30.11.2015 12:06 8,0 C 7,8 C 6,7 C 94 % 15 lf 1016,3 hPa 0,0 l/m 0 min 2 min 43 W/m 14,6 km/h (3 Bft) 96,81 %
30.11.2015 12:08 8,0 C 7,8 C 6,7 C 94 % 15 lf 1016,2 hPa 0,0 l/m 0 min 2 min 42 W/m 10,5 km/h (2 Bft) 93,62 %
30.11.2015 12:10 8,1 C 7,8 C 6,7 C 94 % 15 lf 1016,2 hPa 0,0 l/m 0 min 2 min 39 W/m 14,6 km/h (3 Bft) 95,65 %
30.11.2015 12:12 8,1 C 7,8 C 6,7 C 94 % 15 lf 1016,2 hPa 0,2 l/m 0 min 2 min 39 W/m 18,8 km/h (3 Bft) 97,87 %
30.11.2015 12:14 8,1 C 7,8 C 6,7 C 94 % 15 lf 1016,2 hPa 0,0 l/m 0 min 2 min 39 W/m 14,6 km/h (3 Bft) 95,74 %
30.11.2015 12:16 8,1 C 7,8 C 6,7 C 94 % 15 lf 1016,1 hPa 0,0 l/m 0 min 2 min 39 W/m 10,5 km/h (2 Bft) 97,87 %
30.11.2015 12:18 8,2 C 8,3 C 6,7 C 94 % 15 lf 1016,0 hPa 0,2 l/m 0 min 2 min 45 W/m 14,6 km/h (3 Bft) 97,87 %
30.11.2015 12:20 8,2 C 8,3 C 7,2 C 94 % 15 lf 1015,9 hPa 0,0 l/m 0 min 2 min 60 W/m 12,6 km/h (3 Bft) 95,74 %
30.11.2015 12:22 8,2 C 8,3 C 7,2 C 94 % 15 lf 1015,8 hPa 0,0 l/m 0 min 2 min 52 W/m 14,6 km/h (3 Bft) 100,00 %
30.11.2015 12:24 8,2 C 8,3 C 7,2 C 95 % 15 lf 1015,8 hPa 0,2 l/m 0 min 2 min 53 W/m 12,6 km/h (3 Bft) 100,00 %
30.11.2015 12:26 8,3 C 8,3 C 7,2 C 95 % 15 lf 1015,6 hPa 0,0 l/m 0 min 2 min 61 W/m 14,6 km/h (3 Bft) 100,00 %
30.11.2015 12:28 8,3 C 8,3 C 7,2 C 95 % 15 lf 1015,5 hPa 0,0 l/m 0 min 2 min 69 W/m 14,6 km/h (3 Bft) 100,00 %
30.11.2015 12:30 8,3 C 8,3 C 7,2 C 95 % 15 lf 1015,4 hPa 0,2 l/m 0 min 2 min 66 W/m 14,6 km/h (3 Bft) 100,00 %
30.11.2015 12:32 8,3 C 8,3 C 7,2 C 95 % 15 lf 1015,4 hPa 0,0 l/m 0 min 2 min 52 W/m 14,6 km/h (3 Bft) 100,00 %
30.11.2015 12:34 8,4 C 8,3 C 7,2 C 95 % 15 lf 1015,4 hPa 0,0 l/m 0 min 2 min 37 W/m 18,8 km/h (3 Bft) 100,00 %
30.11.2015 12:36 8,4 C 8,3 C 7,2 C 95 % 15 lf 1015,4 hPa 0,2 l/m 0 min 2 min 30 W/m 16,7 km/h (3 Bft) 97,87 %
30.11.2015 12:38 8,4 C 8,3 C 7,2 C 95 % 15 lf 1015,3 hPa 0,0 l/m 0 min 2 min 27 W/m 18,8 km/h (3 Bft) 100,00 %
30.11.2015 12:40 8,4 C 8,3 C 7,2 C 95 % 15 lf 1015,3 hPa 0,0 l/m 0 min 2 min 27 W/m 16,7 km/h (3 Bft) 95,74 %
30.11.2015 12:42 8,4 C 8,3 C 7,2 C 95 % 15 lf 1015,3 hPa 0,2 l/m 0 min 2 min 28 W/m 16,7 km/h (3 Bft) 100,00 %
30.11.2015 12:44 8,5 C 8,3 C 7,2 C 95 % 15 lf 1015,3 hPa 0,0 l/m 0 min 2 min 26 W/m 20,9 km/h (4 Bft) 100,00 %
30.11.2015 12:46 8,5 C 8,3 C 7,2 C 95 % 15 lf 1015,3 hPa 0,2 l/m 0 min 2 min 28 W/m 14,6 km/h (3 Bft) 100,00 %
30.11.2015 12:48 8,5 C 8,3 C 7,2 C 95 % 15 lf 1015,1 hPa 0,0 l/m 0 min 2 min 30 W/m 18,8 km/h (3 Bft) 100,00 %
30.11.2015 12:50 8,5 C 8,3 C 7,2 C 95 % 15 lf 1015,1 hPa 0,0 l/m 0 min 2 min 25 W/m 18,8 km/h (3 Bft) 100,00 %
30.11.2015 12:52 8,6 C 8,3 C 7,2 C 95 % 15 lf 1015,1 hPa 0,0 l/m 0 min 2 min 22 W/m 18,8 km/h (3 Bft) 100,00 %
30.11.2015 12:54 8,6 C 8,3 C 7,2 C 95 % 15 lf 1015,0 hPa 0,2 l/m 0 min 2 min 24 W/m 27,2 km/h (4 Bft) 97,87 %
30.11.2015 12:56 8,6 C 8,3 C 7,2 C 96 % 15 lf 1015,0 hPa 0,0 l/m 0 min 2 min 19 W/m 20,9 km/h (4 Bft) 100,00 %
30.11.2015 12:58 8,7 C 8,9 C 7,2 C 96 % 15 lf 1014,9 hPa 0,0 l/m 0 min 2 min 23 W/m 27,2 km/h (4 Bft) 95,74 %
30.11.2015 13:00 8,7 C 8,9 C 7,2 C 96 % 15 lf 1014,9 hPa 0,0 l/m 0 min 2 min 23 W/m 18,8 km/h (3 Bft) 100,00 %
30.11.2015 13:02 8,7 C 8,9 C 7,2 C 96 % 15 lf 1014,8 hPa 0,2 l/m 0 min 2 min 22 W/m 16,7 km/h (3 Bft) 100,00 %
30.11.2015 13:04 8,7 C 8,9 C 7,8 C 96 % 15 lf 1014,8 hPa 0,0 l/m 0 min 2 min 19 W/m 25,1 km/h (4 Bft) 97,87 %
30.11.2015 13:06 8,8 C 8,9 C 7,8 C 96 % 15 lf 1014,8 hPa 0,0 l/m 0 min 2 min 19 W/m 23,0 km/h (4 Bft) 100,00 %
30.11.2015 13:08 8,9 C 8,9 C 7,8 C 96 % 15 lf 1014,8 hPa 0,0 l/m 0 min 2 min 19 W/m 29,3 km/h (5 Bft) 97,83 %
30.11.2015 13:10 8,9 C 8,9 C 7,8 C 96 % 15 lf 1014,8 hPa 0,0 l/m 0 min 2 min 21 W/m 23,0 km/h (4 Bft) 95,74 %
30.11.2015 13:12 9,0 C 9,4 C 7,8 C 96 % 15 lf 1014,8 hPa 0,0 l/m 0 min 2 min 24 W/m 25,1 km/h (4 Bft) 97,87 %
30.11.2015 13:14 9,1 C 9,4 C 7,8 C 96 % 15 lf 1014,8 hPa 0,2 l/m 0 min 2 min 22 W/m 31,4 km/h (5 Bft) 95,74 %
30.11.2015 13:16 9,2 C 9,4 C 7,8 C 96 % 15 lf 1014,7 hPa 0,0 l/m 0 min 2 min 19 W/m 31,4 km/h (5 Bft) 95,74 %
30.11.2015 13:18 9,2 C 9,4 C 7,8 C 96 % 15 lf 1014,7 hPa 0,0 l/m 0 min 2 min 18 W/m 43,9 km/h (6 Bft) 95,74 %
30.11.2015 13:20 9,3 C 9,4 C 8,3 C 97 % 15 lf 1014,7 hPa 0,0 l/m 0 min 2 min 17 W/m 29,3 km/h (5 Bft) 91,30 %
30.11.2015 13:22 9,4 C 9,4 C 8,3 C 97 % 15 lf 1014,6 hPa 0,2 l/m 0 min 2 min 19 W/m 33,5 km/h (5 Bft) 93,62 %
30.11.2015 13:24 9,5 C 9,4 C 8,3 C 97 % 15 lf 1014,7 hPa 0,0 l/m 0 min 2 min 25 W/m 39,7 km/h (6 Bft) 93,62 %
30.11.2015 13:26 9,6 C 9,4 C 8,3 C 97 % 15 lf 1014,5 hPa 0,2 l/m 0 min 2 min 24 W/m 33,5 km/h (5 Bft) 95,74 %
30.11.2015 13:28 9,6 C 9,4 C 8,3 C 97 % 15 lf 1014,5 hPa 0,0 l/m 0 min 2 min 18 W/m 39,7 km/h (6 Bft) 95,74 %
30.11.2015 13:30 9,7 C 9,4 C 8,3 C 97 % 15 lf 1014,5 hPa 0,2 l/m 0 min 2 min 19 W/m 31,4 km/h (5 Bft) 91,30 %
30.11.2015 13:32 9,7 C 9,4 C 8,3 C 97 % 15 lf 1014,6 hPa 0,2 l/m 0 min 2 min 20 W/m 48,1 km/h (6 Bft) 89,36 %
30.11.2015 13:34 9,8 C 9,4 C 8,3 C 97 % 15 lf 1014,5 hPa 0,0 l/m 0 min 2 min 16 W/m 39,7 km/h (6 Bft) 95,74 %
30.11.2015 13:36 9,8 C 9,4 C 8,3 C 97 % 15 lf 1014,5 hPa 0,2 l/m 0 min 2 min 15 W/m 35,6 km/h (5 Bft) 93,62 %
30.11.2015 13:38 9,8 C 9,4 C 8,3 C 97 % 15 lf 1014,5 hPa 0,0 l/m 0 min 2 min 14 W/m 33,5 km/h (5 Bft) 93,62 %
30.11.2015 13:40 9,8 C 9,4 C 8,3 C 97 % 15 lf 1014,5 hPa 0,2 l/m 0 min 2 min 18 W/m 27,2 km/h (4 Bft) 95,74 %
30.11.2015 13:42 9,8 C 10,0 C 8,3 C 97 % 15 lf 1014,5 hPa 0,0 l/m 0 min 2 min 19 W/m 33,5 km/h (5 Bft) 95,65 %
30.11.2015 13:44 9,8 C 10,0 C 8,3 C 97 % 15 lf 1014,4 hPa 0,2 l/m 0 min 2 min 19 W/m 46,0 km/h (6 Bft) 97,87 %
30.11.2015 13:46 9,9 C 10,0 C 8,3 C 97 % 15 lf 1014,4 hPa 0,0 l/m 0 min 2 min 19 W/m 43,9 km/h (6 Bft) 97,87 %
30.11.2015 13:48 9,9 C 10,0 C 8,3 C 97 % 15 lf 1014,2 hPa 0,2 l/m 0 min 2 min 23 W/m 35,6 km/h (5 Bft) 97,87 %
30.11.2015 13:50 9,9 C 10,0 C 8,3 C 97 % 15 lf 1014,2 hPa 0,0 l/m 0 min 2 min 20 W/m 39,7 km/h (6 Bft) 89,36 %
30.11.2015 13:52 9,9 C 10,0 C 8,3 C 97 % 15 lf 1014,2 hPa 0,0 l/m 0 min 2 min 20 W/m 48,1 km/h (6 Bft) 97,87 %
30.11.2015 13:54 9,9 C 10,0 C 8,3 C 97 % 15 lf 1014,2 hPa 0,2 l/m 0 min 2 min 22 W/m 41,8 km/h (6 Bft) 97,83 %
30.11.2015 13:56 9,9 C 10,0 C 8,3 C 97 % 15 lf 1014,2 hPa 0,0 l/m 0 min 2 min 22 W/m 46,0 km/h (6 Bft) 95,74 %
30.11.2015 13:58 9,9 C 10,0 C 8,3 C 97 % 15 lf 1014,1 hPa 0,0 l/m 0 min 2 min 26 W/m 52,3 km/h (7 Bft) 95,74 %
30.11.2015 14:00 10,0 C 10,0 C 8,3 C 97 % 15 lf 1014,1 hPa 0,0 l/m 0 min 2 min 33 W/m 50,2 km/h (7 Bft) 97,87 %
30.11.2015 14:02 10,0 C 10,0 C 8,3 C 97 % 15 lf 1014,1 hPa 0,0 l/m 0 min 2 min 30 W/m 64,9 km/h (8 Bft) 97,87 %
30.11.2015 14:04 10,0 C 10,0 C 8,3 C 97 % 15 lf 1014,0 hPa 0,0 l/m 0 min 2 min 28 W/m 56,5 km/h (7 Bft) 97,87 %
30.11.2015 14:06 10,0 C 10,0 C 8,3 C 97 % 15 lf 1014,0 hPa 0,2 l/m 0 min 2 min 22 W/m 39,7 km/h (6 Bft) 95,65 %
30.11.2015 14:08 10,1 C 10,0 C 8,3 C 97 % 15 lf 1014,0 hPa 0,0 l/m 0 min 2 min 19 W/m 39,7 km/h (6 Bft) 100,00 %
30.11.2015 14:10 10,1 C 10,0 C 8,3 C 97 % 15 lf 1013,9 hPa 0,0 l/m 0 min 2 min 17 W/m 39,7 km/h (6 Bft) 100,00 %
30.11.2015 14:12 10,1 C 10,0 C 8,3 C 97 % 15 lf 1014,0 hPa 0,0 l/m 0 min 2 min 16 W/m 50,2 km/h (7 Bft) 100,00 %
30.11.2015 14:14 10,1 C 10,0 C 8,3 C 97 % 15 lf 1013,9 hPa 0,0 l/m 0 min 2 min 13 W/m 39,7 km/h (6 Bft) 95,74 %
30.11.2015 14:16 10,1 C 10,0 C 8,3 C 97 % 15 lf 1014,0 hPa 0,0 l/m 0 min 2 min 17 W/m 37,7 km/h (5 Bft) 97,87 %
30.11.2015 14:18 10,1 C 10,0 C 8,3 C 97 % 15 lf 1013,8 hPa 0,2 l/m 0 min 2 min 20 W/m 41,8 km/h (6 Bft) 95,65 %
30.11.2015 14:20 10,1 C 10,0 C 8,3 C 97 % 15 lf 1013,9 hPa 0,0 l/m 0 min 2 min 21 W/m 50,2 km/h (7 Bft) 95,74 %
30.11.2015 14:22 10,1 C 10,0 C 8,3 C 97 % 15 lf 1013,8 hPa 0,0 l/m 0 min 2 min 25 W/m 43,9 km/h (6 Bft) 95,74 %
30.11.2015 14:24 10,1 C 10,0 C 8,3 C 97 % 15 lf 1013,7 hPa 0,0 l/m 0 min 2 min 30 W/m 62,8 km/h (8 Bft) 95,74 %
30.11.2015 14:26 10,1 C 10,0 C 8,3 C 97 % 15 lf 1013,7 hPa 0,0 l/m 0 min 2 min 30 W/m 43,9 km/h (6 Bft) 93,62 %
30.11.2015 14:28 10,1 C 10,0 C 8,3 C 97 % 15 lf 1013,8 hPa 0,0 l/m 0 min 2 min 31 W/m 46,0 km/h (6 Bft) 93,62 %
30.11.2015 14:30 10,1 C 10,0 C 8,3 C 97 % 15 lf 1013,7 hPa 0,0 l/m 0 min 2 min 26 W/m 52,3 km/h (7 Bft) 93,48 %
30.11.2015 14:32 10,1 C 10,0 C 8,3 C 97 % 15 lf 1013,6 hPa 0,0 l/m 0 min 2 min 29 W/m 39,7 km/h (6 Bft) 97,87 %
30.11.2015 14:34 10,1 C 10,0 C 8,3 C 97 % 15 lf 1013,7 hPa 0,0 l/m 0 min 2 min 29 W/m 39,7 km/h (6 Bft) 95,74 %
30.11.2015 14:36 10,1 C 10,0 C 8,3 C 97 % 15 lf 1013,6 hPa 0,2 l/m 0 min 2 min 31 W/m 41,8 km/h (6 Bft) 95,74 %
30.11.2015 14:38 10,1 C 10,0 C 8,3 C 97 % 15 lf 1013,5 hPa 0,0 l/m 0 min 2 min 32 W/m 48,1 km/h (6 Bft) 95,74 %
30.11.2015 14:40 10,1 C 10,0 C 8,3 C 97 % 15 lf 1013,5 hPa 0,0 l/m 0 min 2 min 29 W/m 48,1 km/h (6 Bft) 95,74 %
30.11.2015 14:42 10,1 C 10,0 C 8,3 C 97 % 15 lf 1013,5 hPa 0,0 l/m 0 min 2 min 25 W/m 41,8 km/h (6 Bft) 93,48 %
30.11.2015 14:44 10,1 C 9,4 C 8,3 C 97 % 15 lf 1013,4 hPa 0,0 l/m 0 min 2 min 23 W/m 50,2 km/h (7 Bft) 93,62 %
30.11.2015 14:46 10,1 C 9,4 C 8,3 C 97 % 15 lf 1013,5 hPa 0,0 l/m 0 min 2 min 22 W/m 43,9 km/h (6 Bft) 89,36 %
30.11.2015 14:48 10,0 C 9,4 C 8,3 C 97 % 15 lf 1013,4 hPa 0,0 l/m 0 min 2 min 18 W/m 46,0 km/h (6 Bft) 89,36 %
30.11.2015 14:50 10,0 C 9,4 C 8,3 C 97 % 15 lf 1013,5 hPa 0,0 l/m 0 min 2 min 18 W/m 41,8 km/h (6 Bft) 91,49 %
30.11.2015 14:52 10,0 C 9,4 C 8,3 C 97 % 15 lf 1013,5 hPa 0,0 l/m 0 min 2 min 17 W/m 41,8 km/h (6 Bft) 95,65 %
30.11.2015 14:54 10,0 C 9,4 C 8,3 C 97 % 15 lf 1013,3 hPa 0,2 l/m 0 min 2 min 17 W/m 33,5 km/h (5 Bft) 93,62 %
30.11.2015 14:56 10,0 C 9,4 C 8,3 C 97 % 15 lf 1013,3 hPa 0,0 l/m 0 min 2 min 19 W/m 48,1 km/h (6 Bft) 95,74 %
30.11.2015 14:58 10,0 C 9,4 C 8,3 C 97 % 15 lf 1013,3 hPa 0,0 l/m 0 min 2 min 22 W/m 43,9 km/h (6 Bft) 89,36 %
30.11.2015 15:00 10,0 C 9,4 C 8,3 C 97 % 15 lf 1013,3 hPa 0,0 l/m 0 min 2 min 26 W/m 39,7 km/h (6 Bft) 93,62 %
30.11.2015 15:02 10,0 C 9,4 C 8,3 C 97 % 15 lf 1013,1 hPa 0,0 l/m 0 min 2 min 25 W/m 35,6 km/h (5 Bft) 97,14 %
30.11.2015 15:04 10,0 C 9,4 C 8,3 C 97 % 15 lf 1013,1 hPa 0,0 l/m 0 min 2 min 20 W/m 41,8 km/h (6 Bft) 95,74 %
30.11.2015 15:06 10,0 C 9,4 C 8,3 C 97 % 15 lf 1013,1 hPa 0,0 l/m 0 min 2 min 20 W/m 46,0 km/h (6 Bft) 89,36 %
30.11.2015 15:08 10,0 C 9,4 C 8,3 C 97 % 15 lf 1013,0 hPa 0,0 l/m 0 min 2 min 23 W/m 50,2 km/h (7 Bft) 95,65 %
30.11.2015 15:10 10,0 C 9,4 C 8,3 C 97 % 15 lf 1013,0 hPa 0,0 l/m 0 min 2 min 27 W/m 58,6 km/h (7 Bft) 97,87 %
30.11.2015 15:12 10,0 C 9,4 C 8,3 C 97 % 15 lf 1012,9 hPa 0,0 l/m 0 min 2 min 28 W/m 39,7 km/h (6 Bft) 95,74 %
30.11.2015 15:14 10,0 C 9,4 C 8,3 C 97 % 15 lf 1013,0 hPa 0,0 l/m 0 min 2 min 25 W/m 43,9 km/h (6 Bft) 80,85 %
30.11.2015 15:16 10,0 C 9,4 C 8,3 C 97 % 15 lf 1012,9 hPa 0,0 l/m 0 min 2 min 24 W/m 41,8 km/h (6 Bft) 91,49 %
30.11.2015 15:18 10,0 C 9,4 C 8,3 C 97 % 15 lf 1012,9 hPa 0,0 l/m 0 min 2 min 20 W/m 46,0 km/h (6 Bft) 95,74 %
30.11.2015 15:20 10,0 C 9,4 C 8,3 C 97 % 15 lf 1012,8 hPa 0,0 l/m 0 min 2 min 19 W/m 46,0 km/h (6 Bft) 95,65 %
30.11.2015 15:22 10,0 C 9,4 C 8,3 C 96 % 15 lf 1012,9 hPa 0,0 l/m 0 min 2 min 18 W/m 48,1 km/h (6 Bft) 93,62 %
30.11.2015 15:24 10,0 C 9,4 C 8,3 C 96 % 15 lf 1012,9 hPa 0,0 l/m 0 min 2 min 17 W/m 41,8 km/h (6 Bft) 95,74 %
30.11.2015 15:26 10,1 C 9,4 C 8,3 C 96 % 15 lf 1012,9 hPa 0,0 l/m 0 min 2 min 17 W/m 46,0 km/h (6 Bft) 95,74 %
30.11.2015 15:28 10,1 C 9,4 C 8,3 C 96 % 15 lf 1012,8 hPa 0,0 l/m 0 min 2 min 17 W/m 37,7 km/h (5 Bft) 93,62 %
30.11.2015 15:30 10,1 C 9,4 C 8,3 C 96 % 15 lf 1012,8 hPa 0,0 l/m 0 min 2 min 14 W/m 31,4 km/h (5 Bft) 91,49 %
30.11.2015 15:32 10,1 C 9,4 C 8,3 C 96 % 15 lf 1012,7 hPa 0,0 l/m 0 min 2 min 11 W/m 43,9 km/h (6 Bft) 93,48 %
30.11.2015 15:34 10,1 C 9,4 C 8,3 C 96 % 15 lf 1012,8 hPa 0,2 l/m 0 min 2 min 12 W/m 41,8 km/h (6 Bft) 95,74 %
30.11.2015 15:36 10,1 C 9,4 C 8,3 C 96 % 15 lf 1012,7 hPa 0,0 l/m 0 min 2 min 13 W/m 35,6 km/h (5 Bft) 95,74 %
30.11.2015 15:38 10,1 C 9,4 C 8,3 C 96 % 15 lf 1012,7 hPa 0,0 l/m 0 min 2 min 12 W/m 43,9 km/h (6 Bft) 95,74 %
30.11.2015 15:40 10,1 C 9,4 C 8,3 C 96 % 15 lf 1012,6 hPa 0,0 l/m 0 min 2 min 14 W/m 39,7 km/h (6 Bft) 97,87 %
30.11.2015 15:42 10,1 C 9,4 C 8,3 C 96 % 15 lf 1012,6 hPa 0,0 l/m 0 min 2 min 11 W/m 56,5 km/h (7 Bft) 97,87 %
30.11.2015 15:44 10,1 C 9,4 C 8,3 C 96 % 15 lf 1012,7 hPa 0,0 l/m 0 min 2 min 9 W/m 46,0 km/h (6 Bft) 95,65 %
30.11.2015 15:46 10,1 C 9,4 C 8,3 C 96 % 15 lf 1012,6 hPa 0,2 l/m 0 min 2 min 9 W/m 43,9 km/h (6 Bft) 97,87 %
30.11.2015 15:48 10,1 C 9,4 C 8,3 C 96 % 15 lf 1012,7 hPa 0,0 l/m 0 min 2 min 7 W/m 41,8 km/h (6 Bft) 97,87 %
30.11.2015 15:50 10,1 C 9,4 C 8,3 C 96 % 15 lf 1012,6 hPa 0,0 l/m 0 min 2 min 7 W/m 48,1 km/h (6 Bft) 97,87 %
30.11.2015 15:52 10,0 C 9,4 C 8,3 C 96 % 15 lf 1012,8 hPa 0,0 l/m 0 min 2 min 6 W/m 50,2 km/h (7 Bft) 95,74 %
30.11.2015 15:54 10,0 C 9,4 C 8,3 C 96 % 15 lf 1012,7 hPa 0,0 l/m 0 min 2 min 7 W/m 43,9 km/h (6 Bft) 95,74 %
30.11.2015 15:56 10,0 C 9,4 C 8,3 C 96 % 15 lf 1012,6 hPa 0,0 l/m 0 min 2 min 6 W/m 43,9 km/h (6 Bft) 97,83 %
30.11.2015 15:58 10,0 C 9,4 C 8,3 C 96 % 15 lf 1012,7 hPa 0,0 l/m 0 min 2 min 7 W/m 39,7 km/h (6 Bft) 97,87 %
30.11.2015 16:00 10,0 C 9,4 C 8,3 C 96 % 15 lf 1012,6 hPa 0,2 l/m 0 min 2 min 8 W/m 52,3 km/h (7 Bft) 97,87 %
30.11.2015 16:02 10,0 C 9,4 C 8,3 C 96 % 15 lf 1012,7 hPa 0,0 l/m 0 min 2 min 7 W/m 35,6 km/h (5 Bft) 97,87 %
30.11.2015 16:04 10,0 C 9,4 C 8,3 C 96 % 15 lf 1012,6 hPa 0,0 l/m 0 min 2 min 7 W/m 37,7 km/h (5 Bft) 97,87 %
30.11.2015 16:06 10,0 C 9,4 C 8,3 C 96 % 15 lf 1012,6 hPa 0,0 l/m 0 min 2 min 6 W/m 46,0 km/h (6 Bft) 95,65 %
30.11.2015 16:08 10,0 C 9,4 C 8,3 C 96 % 15 lf 1012,6 hPa 0,0 l/m 0 min 2 min 5 W/m 31,4 km/h (5 Bft) 97,87 %
30.11.2015 16:10 10,0 C 9,4 C 8,3 C 96 % 15 lf 1012,6 hPa 0,0 l/m 0 min 2 min 3 W/m 33,5 km/h (5 Bft) 91,49 %
30.11.2015 16:12 10,0 C 9,4 C 8,3 C 96 % 15 lf 1012,6 hPa 0,0 l/m 0 min 2 min 2 W/m 43,9 km/h (6 Bft) 95,74 %
30.11.2015 16:14 10,0 C 9,4 C 8,3 C 96 % 15 lf 1012,6 hPa 0,2 l/m 0 min 2 min 0 W/m 35,6 km/h (5 Bft) 93,62 %
30.11.2015 16:16 10,0 C 9,4 C 8,3 C 96 % 15 lf 1012,5 hPa 0,0 l/m 0 min 2 min 0 W/m 46,0 km/h (6 Bft) 95,74 %
30.11.2015 16:18 10,0 C 9,4 C 8,3 C 96 % 15 lf 1012,4 hPa 0,0 l/m 0 min 2 min 0 W/m 37,7 km/h (5 Bft) 97,83 %
30.11.2015 16:20 9,9 C 9,4 C 8,3 C 96 % 15 lf 1012,5 hPa 0,0 l/m 0 min 2 min 0 W/m 35,6 km/h (5 Bft) 95,74 %
30.11.2015 16:22 9,9 C 9,4 C 8,3 C 96 % 15 lf 1012,5 hPa 0,0 l/m 0 min 2 min 0 W/m 52,3 km/h (7 Bft) 97,87 %
30.11.2015 16:24 9,9 C 9,4 C 8,3 C 96 % 15 lf 1012,3 hPa 0,2 l/m 0 min 2 min 0 W/m 39,7 km/h (6 Bft) 95,74 %
30.11.2015 16:26 9,9 C 9,4 C 8,3 C 96 % 15 lf 1012,2 hPa 0,0 l/m 0 min 2 min 0 W/m 31,4 km/h (5 Bft) 97,87 %
30.11.2015 16:28 9,9 C 9,4 C 8,3 C 96 % 15 lf 1012,0 hPa 0,0 l/m 0 min 2 min 0 W/m 35,6 km/h (5 Bft) 95,74 %
30.11.2015 16:30 9,9 C 9,4 C 8,3 C 96 % 15 lf 1011,9 hPa 0,0 l/m 0 min 2 min 0 W/m 33,5 km/h (5 Bft) 97,83 %
30.11.2015 16:32 9,9 C 9,4 C 8,3 C 96 % 15 lf 1011,9 hPa 0,0 l/m 0 min 2 min 0 W/m 43,9 km/h (6 Bft) 97,87 %
30.11.2015 16:34 9,9 C 9,4 C 8,3 C 96 % 15 lf 1011,7 hPa 0,2 l/m 0 min 2 min 0 W/m 43,9 km/h (6 Bft) 97,87 %
30.11.2015 16:36 9,9 C 9,4 C 8,3 C 96 % 15 lf 1011,6 hPa 0,0 l/m 0 min 2 min 0 W/m 39,7 km/h (6 Bft) 95,74 %
30.11.2015 16:38 9,9 C 9,4 C 8,3 C 96 % 15 lf 1011,6 hPa 0,0 l/m 0 min 2 min 0 W/m 35,6 km/h (5 Bft) 97,87 %
30.11.2015 16:40 9,9 C 9,4 C 8,3 C 96 % 15 lf 1011,5 hPa 0,0 l/m 0 min 2 min 0 W/m 37,7 km/h (5 Bft) 93,62 %
30.11.2015 16:42 9,9 C 9,4 C 8,3 C 96 % 15 lf 1011,6 hPa 0,0 l/m 0 min 2 min 0 W/m 39,7 km/h (6 Bft) 95,65 %
30.11.2015 16:44 9,9 C 9,4 C 8,3 C 96 % 15 lf 1011,6 hPa 0,2 l/m 0 min 2 min 0 W/m 50,2 km/h (7 Bft) 97,87 %
30.11.2015 16:46 9,9 C 9,4 C 8,3 C 96 % 15 lf 1011,4 hPa 0,0 l/m 0 min 2 min 0 W/m 50,2 km/h (7 Bft) 95,74 %
30.11.2015 16:48 9,9 C 9,4 C 8,3 C 96 % 15 lf 1011,4 hPa 0,0 l/m 0 min 2 min 0 W/m 46,0 km/h (6 Bft) 97,87 %
30.11.2015 16:50 9,9 C 9,4 C 8,3 C 96 % 15 lf 1011,3 hPa 0,0 l/m 0 min 2 min 0 W/m 37,7 km/h (5 Bft) 95,74 %
30.11.2015 16:52 9,9 C 9,4 C 8,3 C 96 % 15 lf 1011,3 hPa 0,0 l/m 0 min 2 min 0 W/m 48,1 km/h (6 Bft) 93,62 %
30.11.2015 16:54 9,9 C 9,4 C 8,3 C 96 % 15 lf 1011,3 hPa 0,0 l/m 0 min 2 min 0 W/m 43,9 km/h (6 Bft) 89,13 %
30.11.2015 16:56 9,9 C 9,4 C 8,3 C 96 % 15 lf 1011,3 hPa 0,0 l/m 0 min 2 min 0 W/m 43,9 km/h (6 Bft) 95,74 %
30.11.2015 16:58 10,0 C 9,4 C 8,3 C 96 % 15 lf 1011,3 hPa 0,0 l/m 0 min 2 min 0 W/m 41,8 km/h (6 Bft) 91,49 %
30.11.2015 17:00 10,0 C 9,4 C 8,3 C 96 % 15 lf 1011,3 hPa 0,0 l/m 0 min 2 min 0 W/m 48,1 km/h (6 Bft) 89,36 %
30.11.2015 17:02 10,0 C 9,4 C 8,3 C 96 % 15 lf 1011,1 hPa 0,0 l/m 0 min 2 min 0 W/m 37,7 km/h (5 Bft) 93,62 %
30.11.2015 17:04 10,0 C 9,4 C 8,3 C 96 % 15 lf 1011,1 hPa 0,0 l/m 0 min 2 min 0 W/m 52,3 km/h (7 Bft) 84,78 %
30.11.2015 17:06 10,0 C 9,4 C 8,3 C 96 % 15 lf 1011,2 hPa 0,0 l/m 0 min 2 min 0 W/m 50,2 km/h (7 Bft) 93,62 %
30.11.2015 17:08 10,1 C 9,4 C 8,3 C 95 % 15 lf 1011,3 hPa 0,0 l/m 0 min 2 min 0 W/m 43,9 km/h (6 Bft) 91,49 %
30.11.2015 17:10 10,1 C 9,4 C 8,3 C 95 % 15 lf 1011,3 hPa 0,0 l/m 0 min 2 min 0 W/m 48,1 km/h (6 Bft) 91,49 %
30.11.2015 17:12 10,1 C 9,4 C 8,3 C 95 % 15 lf 1011,2 hPa 0,0 l/m 0 min 2 min 0 W/m 48,1 km/h (6 Bft) 95,74 %
30.11.2015 17:14 10,1 C 9,4 C 8,3 C 95 % 15 lf 1011,2 hPa 0,0 l/m 0 min 2 min 0 W/m 64,9 km/h (8 Bft) 93,62 %
30.11.2015 17:16 10,2 C 9,4 C 8,3 C 95 % 15 lf 1011,3 hPa 0,0 l/m 0 min 2 min 0 W/m 60,7 km/h (7 Bft) 93,48 %
30.11.2015 17:18 10,2 C 10,0 C 8,3 C 95 % 15 lf 1011,4 hPa 0,0 l/m 0 min 2 min 0 W/m 58,6 km/h (7 Bft) 97,87 %
30.11.2015 17:20 10,2 C 10,0 C 8,3 C 95 % 15 lf 1011,3 hPa 0,0 l/m 0 min 2 min 0 W/m 64,9 km/h (8 Bft) 95,74 %
30.11.2015 17:22 10,3 C 10,0 C 8,3 C 95 % 15 lf 1011,4 hPa 0,0 l/m 0 min 2 min 0 W/m 62,8 km/h (8 Bft) 93,62 %
30.11.2015 17:24 10,3 C 10,0 C 8,3 C 95 % 15 lf 1011,2 hPa 0,0 l/m 0 min 2 min 0 W/m 56,5 km/h (7 Bft) 93,62 %
30.11.2015 17:26 10,3 C 10,0 C 8,3 C 95 % 15 lf 1011,3 hPa 0,0 l/m 0 min 2 min 0 W/m 62,8 km/h (8 Bft) 95,74 %
30.11.2015 17:28 10,4 C 10,0 C 8,3 C 95 % 15 lf 1011,2 hPa 0,0 l/m 0 min 2 min 0 W/m 50,2 km/h (7 Bft) 93,48 %
30.11.2015 17:30 10,4 C 10,0 C 8,3 C 94 % 15 lf 1011,2 hPa 0,0 l/m 0 min 2 min 0 W/m 66,9 km/h (8 Bft) 95,74 %
30.11.2015 17:32 10,4 C 10,0 C 8,3 C 94 % 15 lf 1011,1 hPa 0,0 l/m 0 min 2 min 0 W/m 60,7 km/h (7 Bft) 97,87 %
30.11.2015 17:34 10,4 C 10,0 C 8,3 C 94 % 15 lf 1011,3 hPa 0,0 l/m 0 min 2 min 0 W/m 86,8 km/h (9 Bft) 95,74 %
30.11.2015 17:36 10,5 C 10,0 C 8,3 C 94 % 15 lf 1011,1 hPa 0,0 l/m 0 min 2 min 0 W/m 50,2 km/h (7 Bft) 95,74 %
30.11.2015 17:38 10,5 C 10,0 C 8,3 C 94 % 15 lf 1011,2 hPa 0,0 l/m 0 min 2 min 0 W/m 58,6 km/h (7 Bft) 95,74 %
30.11.2015 17:40 10,6 C 10,0 C 8,3 C 93 % 15 lf 1011,1 hPa 0,0 l/m 0 min 2 min 0 W/m 58,6 km/h (7 Bft) 97,83 %
30.11.2015 17:42 10,6 C 10,0 C 8,3 C 93 % 15 lf 1011,1 hPa 0,0 l/m 0 min 2 min 0 W/m 60,7 km/h (7 Bft) 97,87 %
30.11.2015 17:44 10,6 C 10,0 C 8,3 C 93 % 15 lf 1011,0 hPa 0,0 l/m 0 min 2 min 0 W/m 43,9 km/h (6 Bft) 95,74 %
30.11.2015 17:46 10,6 C 10,0 C 8,3 C 93 % 15 lf 1011,0 hPa 0,0 l/m 0 min 2 min 0 W/m 54,4 km/h (7 Bft) 97,87 %
30.11.2015 17:48 10,6 C 10,0 C 8,3 C 93 % 15 lf 1010,9 hPa 0,2 l/m 0 min 2 min 0 W/m 52,3 km/h (7 Bft) 93,62 %
30.11.2015 17:50 10,6 C 9,4 C 8,3 C 92 % 15 lf 1011,1 hPa 0,0 l/m 0 min 2 min 0 W/m 50,2 km/h (7 Bft) 95,74 %
30.11.2015 17:52 10,6 C 9,4 C 8,3 C 92 % 15 lf 1011,0 hPa 0,0 l/m 0 min 2 min 0 W/m 48,1 km/h (6 Bft) 97,83 %
30.11.2015 17:54 10,6 C 9,4 C 8,3 C 92 % 15 lf 1011,0 hPa 0,0 l/m 0 min 2 min 0 W/m 60,7 km/h (7 Bft) 100,00 %
30.11.2015 17:56 10,6 C 9,4 C 8,3 C 92 % 15 lf 1011,1 hPa 0,2 l/m 0 min 2 min 0 W/m 46,0 km/h (6 Bft) 100,00 %
30.11.2015 17:58 10,6 C 9,4 C 8,3 C 92 % 15 lf 1011,2 hPa 0,0 l/m 0 min 2 min 0 W/m 41,8 km/h (6 Bft) 100,00 %
30.11.2015 18:00 10,5 C 9,4 C 8,3 C 92 % 15 lf 1011,3 hPa 0,2 l/m 0 min 2 min 0 W/m 52,3 km/h (7 Bft) 97,87 %
30.11.2015 18:02 10,5 C 9,4 C 8,3 C 93 % 15 lf 1011,4 hPa 0,0 l/m 0 min 2 min 0 W/m 46,0 km/h (6 Bft) 95,74 %
30.11.2015 18:04 10,5 C 9,4 C 8,3 C 93 % 15 lf 1011,5 hPa 0,2 l/m 0 min 2 min 0 W/m 35,6 km/h (5 Bft) 97,83 %
30.11.2015 18:06 10,4 C 9,4 C 8,3 C 93 % 15 lf 1011,6 hPa 0,0 l/m 0 min 2 min 0 W/m 43,9 km/h (6 Bft) 97,87 %
30.11.2015 18:08 10,4 C 9,4 C 8,3 C 93 % 15 lf 1011,4 hPa 0,2 l/m 0 min 2 min 0 W/m 46,0 km/h (6 Bft) 100,00 %
30.11.2015 18:10 10,4 C 9,4 C 8,3 C 93 % 15 lf 1011,4 hPa 0,0 l/m 0 min 2 min 0 W/m 48,1 km/h (6 Bft) 100,00 %
30.11.2015 18:12 10,4 C 9,4 C 8,3 C 93 % 15 lf 1011,4 hPa 0,2 l/m 0 min 2 min 0 W/m 43,9 km/h (6 Bft) 97,87 %
30.11.2015 18:14 10,4 C 9,4 C 8,3 C 93 % 15 lf 1011,4 hPa 0,2 l/m 0 min 2 min 0 W/m 48,1 km/h (6 Bft) 97,87 %
30.11.2015 18:16 10,3 C 9,4 C 8,3 C 93 % 15 lf 1011,4 hPa 0,0 l/m 0 min 2 min 0 W/m 41,8 km/h (6 Bft) 100,00 %
30.11.2015 18:18 10,3 C 9,4 C 8,3 C 93 % 15 lf 1011,4 hPa 0,2 l/m 0 min 2 min 0 W/m 43,9 km/h (6 Bft) 100,00 %
30.11.2015 18:20 10,3 C 9,4 C 8,3 C 94 % 15 lf 1011,3 hPa 0,0 l/m 0 min 2 min 0 W/m 50,2 km/h (7 Bft) 97,87 %
30.11.2015 18:22 10,3 C 9,4 C 8,3 C 94 % 15 lf 1011,4 hPa 0,2 l/m 0 min 2 min 0 W/m 48,1 km/h (6 Bft) 91,49 %
30.11.2015 18:24 10,2 C 9,4 C 8,3 C 94 % 15 lf 1011,3 hPa 0,0 l/m 0 min 2 min 0 W/m 46,0 km/h (6 Bft) 100,00 %
30.11.2015 18:26 10,2 C 9,4 C 8,3 C 94 % 15 lf 1011,4 hPa 0,2 l/m 0 min 2 min 0 W/m 50,2 km/h (7 Bft) 100,00 %
30.11.2015 18:28 10,2 C 9,4 C 8,3 C 94 % 15 lf 1011,3 hPa 0,0 l/m 0 min 2 min 0 W/m 64,9 km/h (8 Bft) 100,00 %
30.11.2015 18:30 10,2 C 9,4 C 8,3 C 94 % 15 lf 1011,1 hPa 0,0 l/m 0 min 2 min 0 W/m 46,0 km/h (6 Bft) 100,00 %
30.11.2015 18:32 10,2 C 9,4 C 8,3 C 94 % 15 lf 1011,1 hPa 0,0 l/m 0 min 2 min 0 W/m 43,9 km/h (6 Bft) 97,87 %
30.11.2015 18:34 10,2 C 9,4 C 8,3 C 94 % 15 lf 1011,1 hPa 0,2 l/m 0 min 2 min 0 W/m 56,5 km/h (7 Bft) 98,18 %
30.11.2015 18:36 10,2 C 9,4 C 8,3 C 94 % 15 lf 1011,3 hPa 0,0 l/m 0 min 2 min 0 W/m 50,2 km/h (7 Bft) 93,62 %
30.11.2015 18:38 10,2 C 9,4 C 8,3 C 95 % 15 lf 1011,1 hPa 0,0 l/m 0 min 2 min 0 W/m 48,1 km/h (6 Bft) 95,65 %
30.11.2015 18:40 10,1 C 9,4 C 8,3 C 95 % 15 lf 1011,1 hPa 0,0 l/m 0 min 2 min 0 W/m 48,1 km/h (6 Bft) 91,49 %
30.11.2015 18:42 10,1 C 9,4 C 8,3 C 95 % 15 lf 1011,2 hPa 0,0 l/m 0 min 2 min 0 W/m 48,1 km/h (6 Bft) 95,74 %
30.11.2015 18:44 10,1 C 9,4 C 8,3 C 95 % 15 lf 1011,1 hPa 0,2 l/m 0 min 2 min 0 W/m 50,2 km/h (7 Bft) 95,74 %
30.11.2015 18:46 10,1 C 9,4 C 8,3 C 95 % 15 lf 1011,1 hPa 0,0 l/m 0 min 2 min 0 W/m 58,6 km/h (7 Bft) 93,62 %
30.11.2015 18:48 10,1 C 9,4 C 8,3 C 95 % 15 lf 1011,1 hPa 0,0 l/m 0 min 2 min 0 W/m 58,6 km/h (7 Bft) 97,87 %
30.11.2015 18:50 10,1 C 9,4 C 8,3 C 95 % 15 lf 1011,1 hPa 0,0 l/m 0 min 2 min 0 W/m 50,2 km/h (7 Bft) 93,48 %
30.11.2015 18:52 10,1 C 9,4 C 8,3 C 95 % 15 lf 1011,1 hPa 0,2 l/m 0 min 2 min 0 W/m 66,9 km/h (8 Bft) 93,62 %
30.11.2015 18:54 10,1 C 9,4 C 8,3 C 95 % 15 lf 1011,2 hPa 0,0 l/m 0 min 2 min 0 W/m 46,0 km/h (6 Bft) 95,74 %
30.11.2015 18:56 10,1 C 9,4 C 8,3 C 95 % 15 lf 1011,2 hPa 0,0 l/m 0 min 2 min 0 W/m 60,7 km/h (7 Bft) 95,74 %
30.11.2015 18:58 10,1 C 9,4 C 8,3 C 95 % 15 lf 1011,1 hPa 0,0 l/m 0 min 2 min 0 W/m 56,5 km/h (7 Bft) 95,74 %
30.11.2015 19:00 10,1 C 9,4 C 8,3 C 95 % 15 lf 1011,1 hPa 0,2 l/m 0 min 2 min 0 W/m 46,0 km/h (6 Bft) 95,65 %
30.11.2015 19:02 10,1 C 9,4 C 8,3 C 95 % 15 lf 1011,1 hPa 0,0 l/m 0 min 2 min 0 W/m 62,8 km/h (8 Bft) 91,49 %
30.11.2015 19:04 10,1 C 9,4 C 8,3 C 95 % 15 lf 1011,1 hPa 0,0 l/m 0 min 2 min 0 W/m 48,1 km/h (6 Bft) 93,62 %
30.11.2015 19:06 10,1 C 9,4 C 8,3 C 96 % 15 lf 1011,3 hPa 0,2 l/m 0 min 2 min 0 W/m 48,1 km/h (6 Bft) 91,49 %
30.11.2015 19:08 10,1 C 9,4 C 8,3 C 95 % 15 lf 1011,2 hPa 0,0 l/m 0 min 2 min 0 W/m 54,4 km/h (7 Bft) 93,62 %
30.11.2015 19:10 10,1 C 9,4 C 8,3 C 95 % 15 lf 1011,1 hPa 0,0 l/m 0 min 2 min 0 W/m 52,3 km/h (7 Bft) 91,49 %
30.11.2015 19:12 10,1 C 9,4 C 8,3 C 95 % 15 lf 1011,1 hPa 0,0 l/m 0 min 2 min 0 W/m 58,6 km/h (7 Bft) 89,13 %
30.11.2015 19:14 10,1 C 9,4 C 8,3 C 96 % 15 lf 1011,1 hPa 0,2 l/m 0 min 2 min 0 W/m 37,7 km/h (5 Bft) 95,74 %
30.11.2015 19:16 10,1 C 9,4 C 8,3 C 96 % 15 lf 1011,1 hPa 0,0 l/m 0 min 2 min 0 W/m 56,5 km/h (7 Bft) 91,49 %
30.11.2015 19:18 10,1 C 9,4 C 8,3 C 96 % 15 lf 1011,3 hPa 0,0 l/m 0 min 2 min 0 W/m 64,9 km/h (8 Bft) 93,62 %
30.11.2015 19:20 10,1 C 9,4 C 8,3 C 96 % 15 lf 1011,2 hPa 0,2 l/m 0 min 2 min 0 W/m 52,3 km/h (7 Bft) 91,49 %
30.11.2015 19:22 10,1 C 9,4 C 8,3 C 96 % 15 lf 1011,1 hPa 0,0 l/m 0 min 2 min 0 W/m 62,8 km/h (8 Bft) 95,74 %
30.11.2015 19:24 10,1 C 9,4 C 8,3 C 96 % 15 lf 1011,2 hPa 0,0 l/m 0 min 2 min 0 W/m 50,2 km/h (7 Bft) 95,65 %
30.11.2015 19:26 10,1 C 9,4 C 8,3 C 96 % 15 lf 1011,1 hPa 0,0 l/m 0 min 2 min 0 W/m 58,6 km/h (7 Bft) 93,62 %
30.11.2015 19:28 10,1 C 9,4 C 8,3 C 96 % 15 lf 1011,2 hPa 0,2 l/m 0 min 2 min 0 W/m 54,4 km/h (7 Bft) 91,49 %
30.11.2015 19:30 10,1 C 9,4 C 8,3 C 96 % 15 lf 1011,1 hPa 0,0 l/m 0 min 2 min 0 W/m 43,9 km/h (6 Bft) 93,62 %
30.11.2015 19:32 10,1 C 9,4 C 8,3 C 96 % 15 lf 1011,1 hPa 0,0 l/m 0 min 2 min 0 W/m 64,9 km/h (8 Bft) 95,74 %
30.11.2015 19:34 10,1 C 9,4 C 8,3 C 96 % 15 lf 1011,2 hPa 0,2 l/m 0 min 2 min 0 W/m 43,9 km/h (6 Bft) 93,62 %
30.11.2015 19:36 10,1 C 9,4 C 8,3 C 96 % 15 lf 1011,1 hPa 0,0 l/m 0 min 2 min 0 W/m 71,1 km/h (8 Bft) 93,48 %
30.11.2015 19:38 10,1 C 9,4 C 8,3 C 96 % 15 lf 1011,1 hPa 0,0 l/m 0 min 2 min 0 W/m 39,7 km/h (6 Bft) 93,62 %
30.11.2015 19:40 10,1 C 9,4 C 8,3 C 96 % 15 lf 1011,1 hPa 0,2 l/m 0 min 2 min 0 W/m 50,2 km/h (7 Bft) 95,74 %
30.11.2015 19:42 10,1 C 9,4 C 8,3 C 96 % 15 lf 1011,1 hPa 0,0 l/m 0 min 2 min 0 W/m 50,2 km/h (7 Bft) 91,49 %
30.11.2015 19:44 10,1 C 10,0 C 8,3 C 96 % 15 lf 1011,0 hPa 0,0 l/m 0 min 2 min 0 W/m 43,9 km/h (6 Bft) 91,49 %
30.11.2015 19:46 10,1 C 10,0 C 8,3 C 96 % 15 lf 1011,1 hPa 0,2 l/m 0 min 2 min 0 W/m 50,2 km/h (7 Bft) 95,74 %
30.11.2015 19:48 10,1 C 10,0 C 8,3 C 96 % 15 lf 1011,1 hPa 0,0 l/m 0 min 2 min 0 W/m 43,9 km/h (6 Bft) 97,83 %
30.11.2015 19:50 10,1 C 10,0 C 8,3 C 96 % 15 lf 1011,1 hPa 0,0 l/m 0 min 2 min 0 W/m 37,7 km/h (5 Bft) 95,74 %
30.11.2015 19:52 10,2 C 10,0 C 8,3 C 96 % 15 lf 1011,2 hPa 0,0 l/m 0 min 2 min 0 W/m 48,1 km/h (6 Bft) 100,00 %
30.11.2015 19:54 10,1 C 10,0 C 8,3 C 96 % 15 lf 1011,1 hPa 0,2 l/m 0 min 2 min 0 W/m 64,9 km/h (8 Bft) 95,74 %
30.11.2015 19:56 10,2 C 10,0 C 8,3 C 96 % 15 lf 1011,1 hPa 0,0 l/m 0 min 2 min 0 W/m 58,6 km/h (7 Bft) 95,74 %
30.11.2015 19:58 10,2 C 10,0 C 8,3 C 96 % 15 lf 1010,9 hPa 0,0 l/m 0 min 2 min 0 W/m 48,1 km/h (6 Bft) 93,62 %
30.11.2015 20:00 10,2 C 10,0 C 8,3 C 96 % 15 lf 1011,0 hPa 0,0 l/m 0 min 2 min 0 W/m 56,5 km/h (7 Bft) 97,83 %
30.11.2015 20:02 10,2 C 10,0 C 8,3 C 96 % 15 lf 1011,1 hPa 0,2 l/m 0 min 2 min 0 W/m 66,9 km/h (8 Bft) 93,62 %
30.11.2015 20:04 10,2 C 10,0 C 8,3 C 96 % 15 lf 1011,1 hPa 0,0 l/m 0 min 2 min 0 W/m 56,5 km/h (7 Bft) 91,49 %
30.11.2015 20:06 10,2 C 10,0 C 8,3 C 96 % 15 lf 1011,1 hPa 0,0 l/m 0 min 2 min 0 W/m 56,5 km/h (7 Bft) 98,00 %
30.11.2015 20:08 10,2 C 10,0 C 8,3 C 96 % 15 lf 1011,2 hPa 0,0 l/m 0 min 2 min 0 W/m 50,2 km/h (7 Bft) 97,87 %
30.11.2015 20:10 10,2 C 10,0 C 8,9 C 96 % 15 lf 1011,1 hPa 0,2 l/m 0 min 2 min 0 W/m 52,3 km/h (7 Bft) 97,83 %
30.11.2015 20:12 10,2 C 10,0 C 8,3 C 96 % 15 lf 1011,1 hPa 0,0 l/m 0 min 2 min 0 W/m 56,5 km/h (7 Bft) 93,62 %
30.11.2015 20:14 10,2 C 10,0 C 8,9 C 96 % 15 lf 1011,2 hPa 0,0 l/m 0 min 2 min 0 W/m 58,6 km/h (7 Bft) 95,74 %
30.11.2015 20:16 10,2 C 10,0 C 8,9 C 96 % 15 lf 1011,2 hPa 0,2 l/m 0 min 2 min 0 W/m 50,2 km/h (7 Bft) 97,87 %
30.11.2015 20:18 10,2 C 10,0 C 8,9 C 96 % 15 lf 1011,3 hPa 0,0 l/m 0 min 2 min 0 W/m 58,6 km/h (7 Bft) 97,87 %
30.11.2015 20:20 10,2 C 10,0 C 8,9 C 96 % 15 lf 1011,3 hPa 0,0 l/m 0 min 2 min 0 W/m 54,4 km/h (7 Bft) 93,62 %
30.11.2015 20:22 10,2 C 10,0 C 8,9 C 96 % 15 lf 1011,1 hPa 0,0 l/m 0 min 2 min 0 W/m 48,1 km/h (6 Bft) 95,65 %
30.11.2015 20:24 10,2 C 10,0 C 8,9 C 96 % 15 lf 1011,1 hPa 0,0 l/m 0 min 2 min 0 W/m 52,3 km/h (7 Bft) 95,74 %
30.11.2015 20:26 10,2 C 10,0 C 8,9 C 96 % 15 lf 1011,1 hPa 0,2 l/m 0 min 2 min 0 W/m 75,3 km/h (9 Bft) 95,74 %
30.11.2015 20:28 10,2 C 10,0 C 8,9 C 96 % 15 lf 1011,4 hPa 0,0 l/m 0 min 2 min 0 W/m 75,3 km/h (9 Bft) 97,87 %
30.11.2015 20:30 10,2 C 10,0 C 8,9 C 96 % 15 lf 1011,3 hPa 0,0 l/m 0 min 2 min 0 W/m 60,7 km/h (7 Bft) 95,74 %
30.11.2015 20:32 10,2 C 10,0 C 8,9 C 96 % 15 lf 1011,4 hPa 0,0 l/m 0 min 2 min 0 W/m 52,3 km/h (7 Bft) 95,74 %
30.11.2015 20:34 10,2 C 10,0 C 8,9 C 96 % 15 lf 1011,4 hPa 0,0 l/m 0 min 2 min 0 W/m 62,8 km/h (8 Bft) 95,65 %
30.11.2015 20:36 10,2 C 10,0 C 8,9 C 96 % 15 lf 1011,3 hPa 0,2 l/m 0 min 2 min 0 W/m 43,9 km/h (6 Bft) 95,74 %
30.11.2015 20:38 10,2 C 10,0 C 8,9 C 96 % 15 lf 1011,5 hPa 0,0 l/m 0 min 2 min 0 W/m 46,0 km/h (6 Bft) 95,74 %
30.11.2015 20:40 10,2 C 10,0 C 8,9 C 96 % 15 lf 1011,4 hPa 0,0 l/m 0 min 2 min 0 W/m 56,5 km/h (7 Bft) 97,87 %
30.11.2015 20:42 10,2 C 10,0 C 8,9 C 96 % 15 lf 1011,4 hPa 0,0 l/m 0 min 2 min 0 W/m 52,3 km/h (7 Bft) 100,00 %
30.11.2015 20:44 10,2 C 10,0 C 8,9 C 96 % 15 lf 1011,5 hPa 0,0 l/m 0 min 2 min 0 W/m 46,0 km/h (6 Bft) 97,83 %
30.11.2015 20:46 10,2 C 10,0 C 8,9 C 96 % 15 lf 1011,4 hPa 0,2 l/m 0 min 2 min 0 W/m 48,1 km/h (6 Bft) 95,74 %
30.11.2015 20:48 10,2 C 10,0 C 8,9 C 96 % 15 lf 1011,5 hPa 0,0 l/m 0 min 2 min 0 W/m 48,1 km/h (6 Bft) 95,74 %
30.11.2015 20:50 10,2 C 10,0 C 8,9 C 96 % 15 lf 1011,4 hPa 0,0 l/m 0 min 2 min 0 W/m 43,9 km/h (6 Bft) 97,87 %
30.11.2015 20:52 10,2 C 10,0 C 8,9 C 96 % 15 lf 1011,5 hPa 0,0 l/m 0 min 2 min 0 W/m 54,4 km/h (7 Bft) 97,14 %
30.11.2015 20:54 10,3 C 10,0 C 8,9 C 96 % 15 lf 1011,6 hPa 0,0 l/m 0 min 2 min 0 W/m 56,5 km/h (7 Bft) 97,87 %
30.11.2015 20:56 10,3 C 10,0 C 8,9 C 96 % 15 lf 1011,6 hPa 0,0 l/m 0 min 2 min 0 W/m 50,2 km/h (7 Bft) 95,74 %
30.11.2015 20:58 10,3 C 10,0 C 8,9 C 96 % 15 lf 1011,5 hPa 0,2 l/m 0 min 2 min 0 W/m 41,8 km/h (6 Bft) 95,65 %
30.11.2015 21:00 10,3 C 10,0 C 8,9 C 96 % 15 lf 1011,6 hPa 0,0 l/m 0 min 2 min 0 W/m 46,0 km/h (6 Bft) 97,87 %
30.11.2015 21:02 10,3 C 10,0 C 8,9 C 96 % 15 lf 1011,8 hPa 0,0 l/m 0 min 2 min 0 W/m 73,2 km/h (8 Bft) 97,87 %
30.11.2015 21:04 10,3 C 10,0 C 8,9 C 96 % 15 lf 1011,7 hPa 0,0 l/m 0 min 2 min 0 W/m 46,0 km/h (6 Bft) 95,74 %
30.11.2015 21:06 10,3 C 10,0 C 8,9 C 96 % 15 lf 1011,6 hPa 0,0 l/m 0 min 2 min 0 W/m 46,0 km/h (6 Bft) 93,62 %
30.11.2015 21:08 10,3 C 10,0 C 8,9 C 96 % 15 lf 1011,8 hPa 0,0 l/m 0 min 2 min 0 W/m 37,7 km/h (5 Bft) 95,74 %
30.11.2015 21:10 10,3 C 10,0 C 8,9 C 97 % 15 lf 1011,7 hPa 0,0 l/m 0 min 2 min 0 W/m 46,0 km/h (6 Bft) 97,83 %
30.11.2015 21:12 10,3 C 10,0 C 8,9 C 97 % 15 lf 1011,8 hPa 0,0 l/m 0 min 2 min 0 W/m 41,8 km/h (6 Bft) 95,74 %
30.11.2015 21:14 10,3 C 10,0 C 8,9 C 97 % 15 lf 1011,8 hPa 0,0 l/m 0 min 2 min 0 W/m 52,3 km/h (7 Bft) 95,74 %
30.11.2015 21:16 10,3 C 10,0 C 8,9 C 97 % 15 lf 1011,9 hPa 0,0 l/m 0 min 2 min 0 W/m 56,5 km/h (7 Bft) 100,00 %
30.11.2015 21:18 10,3 C 10,0 C 8,9 C 97 % 15 lf 1011,8 hPa 0,0 l/m 0 min 2 min 0 W/m 43,9 km/h (6 Bft) 97,87 %
30.11.2015 21:20 10,3 C 10,0 C 8,9 C 97 % 15 lf 1011,9 hPa 0,2 l/m 0 min 2 min 0 W/m 43,9 km/h (6 Bft) 97,87 %
30.11.2015 21:22 10,3 C 10,0 C 8,9 C 97 % 15 lf 1011,9 hPa 0,0 l/m 0 min 2 min 0 W/m 50,2 km/h (7 Bft) 100,00 %
30.11.2015 21:24 10,3 C 10,0 C 8,9 C 97 % 15 lf 1011,9 hPa 0,0 l/m 0 min 2 min 0 W/m 39,7 km/h (6 Bft) 100,00 %
30.11.2015 21:26 10,3 C 10,0 C 8,9 C 97 % 15 lf 1012,1 hPa 0,0 l/m 0 min 2 min 0 W/m 48,1 km/h (6 Bft) 97,87 %
30.11.2015 21:28 10,3 C 10,0 C 8,9 C 97 % 15 lf 1012,2 hPa 0,0 l/m 0 min 2 min 0 W/m 48,1 km/h (6 Bft) 97,87 %
30.11.2015 21:30 10,3 C 10,0 C 8,9 C 97 % 15 lf 1012,1 hPa 0,0 l/m 0 min 2 min 0 W/m 48,1 km/h (6 Bft) 97,87 %
30.11.2015 21:32 10,3 C 10,0 C 8,9 C 97 % 15 lf 1012,2 hPa 0,0 l/m 0 min 2 min 0 W/m 52,3 km/h (7 Bft) 97,87 %
30.11.2015 21:34 10,3 C 10,0 C 8,9 C 97 % 15 lf 1012,1 hPa 0,0 l/m 0 min 2 min 0 W/m 37,7 km/h (5 Bft) 97,83 %
30.11.2015 21:36 10,3 C 10,0 C 8,9 C 97 % 15 lf 1012,2 hPa 0,2 l/m 0 min 2 min 0 W/m 46,0 km/h (6 Bft) 100,00 %
30.11.2015 21:38 10,3 C 10,0 C 8,9 C 97 % 15 lf 1012,2 hPa 0,0 l/m 0 min 2 min 0 W/m 50,2 km/h (7 Bft) 95,74 %
30.11.2015 21:40 10,3 C 10,0 C 8,9 C 97 % 15 lf 1012,2 hPa 0,0 l/m 0 min 2 min 0 W/m 43,9 km/h (6 Bft) 100,00 %
30.11.2015 21:42 10,3 C 10,0 C 8,9 C 97 % 15 lf 1012,2 hPa 0,0 l/m 0 min 2 min 0 W/m 43,9 km/h (6 Bft) 100,00 %
30.11.2015 21:44 10,3 C 10,0 C 8,9 C 97 % 15 lf 1012,3 hPa 0,2 l/m 0 min 2 min 0 W/m 41,8 km/h (6 Bft) 100,00 %
30.11.2015 21:46 10,3 C 10,0 C 8,9 C 97 % 15 lf 1012,3 hPa 0,0 l/m 0 min 2 min 0 W/m 37,7 km/h (5 Bft) 95,00 %
30.11.2015 21:48 10,3 C 10,0 C 8,9 C 97 % 15 lf 1012,3 hPa 0,0 l/m 0 min 2 min 0 W/m 46,0 km/h (6 Bft) 96,23 %
30.11.2015 21:50 10,3 C 10,0 C 8,9 C 97 % 15 lf 1012,4 hPa 0,2 l/m 0 min 2 min 0 W/m 43,9 km/h (6 Bft) 100,00 %
30.11.2015 21:52 10,3 C 10,0 C 8,9 C 97 % 15 lf 1012,4 hPa 0,0 l/m 0 min 2 min 0 W/m 39,7 km/h (6 Bft) 100,00 %
30.11.2015 21:54 10,3 C 10,0 C 8,9 C 97 % 15 lf 1012,4 hPa 0,0 l/m 0 min 2 min 0 W/m 46,0 km/h (6 Bft) 97,87 %
30.11.2015 21:56 10,3 C 10,0 C 8,9 C 97 % 15 lf 1012,5 hPa 0,0 l/m 0 min 2 min 0 W/m 41,8 km/h (6 Bft) 97,83 %
30.11.2015 21:58 10,3 C 10,0 C 8,9 C 97 % 15 lf 1012,3 hPa 0,0 l/m 0 min 2 min 0 W/m 50,2 km/h (7 Bft) 97,87 %
30.11.2015 22:00 10,3 C 10,0 C 8,9 C 97 % 15 lf 1012,4 hPa 0,0 l/m 0 min 2 min 0 W/m 50,2 km/h (7 Bft) 95,74 %
30.11.2015 22:02 10,3 C 10,0 C 8,9 C 97 % 15 lf 1012,4 hPa 0,0 l/m 0 min 2 min 0 W/m 46,0 km/h (6 Bft) 93,62 %
30.11.2015 22:04 10,3 C 10,0 C 8,9 C 97 % 15 lf 1012,5 hPa 0,2 l/m 0 min 2 min 0 W/m 43,9 km/h (6 Bft) 93,62 %
30.11.2015 22:06 10,3 C 10,0 C 8,9 C 97 % 15 lf 1012,5 hPa 0,0 l/m 0 min 2 min 0 W/m 39,7 km/h (6 Bft) 97,87 %
30.11.2015 22:08 10,3 C 10,0 C 8,9 C 97 % 15 lf 1012,6 hPa 0,0 l/m 0 min 2 min 0 W/m 43,9 km/h (6 Bft) 97,83 %
30.11.2015 22:10 10,3 C 10,0 C 8,9 C 97 % 15 lf 1012,6 hPa 0,0 l/m 0 min 2 min 0 W/m 41,8 km/h (6 Bft) 97,87 %
30.11.2015 22:12 10,3 C 10,0 C 8,9 C 97 % 15 lf 1012,6 hPa 0,0 l/m 0 min 2 min 0 W/m 48,1 km/h (6 Bft) 95,74 %
30.11.2015 22:14 10,3 C 10,0 C 8,9 C 97 % 15 lf 1012,6 hPa 0,2 l/m 0 min 2 min 0 W/m 46,0 km/h (6 Bft) 97,87 %
30.11.2015 22:16 10,3 C 10,0 C 8,9 C 97 % 15 lf 1012,6 hPa 0,0 l/m 0 min 2 min 0 W/m 35,6 km/h (5 Bft) 97,87 %
30.11.2015 22:18 10,3 C 10,0 C 8,9 C 97 % 15 lf 1012,7 hPa 0,0 l/m 0 min 2 min 0 W/m 43,9 km/h (6 Bft) 97,87 %
30.11.2015 22:20 10,3 C 10,0 C 8,9 C 97 % 15 lf 1012,6 hPa 0,0 l/m 0 min 2 min 0 W/m 56,5 km/h (7 Bft) 97,83 %
30.11.2015 22:22 10,3 C 10,0 C 8,9 C 97 % 15 lf 1012,6 hPa 0,0 l/m 0 min 2 min 0 W/m 39,7 km/h (6 Bft) 93,62 %
30.11.2015 22:24 10,3 C 10,0 C 8,9 C 97 % 15 lf 1012,6 hPa 0,0 l/m 0 min 2 min 0 W/m 56,5 km/h (7 Bft) 91,49 %
30.11.2015 22:26 10,3 C 10,0 C 8,9 C 97 % 15 lf 1012,7 hPa 0,0 l/m 0 min 2 min 0 W/m 50,2 km/h (7 Bft) 93,62 %
30.11.2015 22:28 10,3 C 10,0 C 8,9 C 97 % 15 lf 1012,7 hPa 0,2 l/m 0 min 2 min 0 W/m 43,9 km/h (6 Bft) 95,74 %
30.11.2015 22:30 10,3 C 10,0 C 8,9 C 97 % 15 lf 1012,7 hPa 0,0 l/m 0 min 2 min 0 W/m 54,4 km/h (7 Bft) 96,00 %
30.11.2015 22:32 10,3 C 10,0 C 8,9 C 97 % 15 lf 1012,8 hPa 0,0 l/m 0 min 2 min 0 W/m 52,3 km/h (7 Bft) 91,30 %
30.11.2015 22:34 10,3 C 10,0 C 8,9 C 97 % 15 lf 1012,7 hPa 0,0 l/m 0 min 2 min 0 W/m 41,8 km/h (6 Bft) 91,49 %
30.11.2015 22:36 10,3 C 10,0 C 8,9 C 97 % 15 lf 1012,7 hPa 0,0 l/m 0 min 2 min 0 W/m 41,8 km/h (6 Bft) 87,23 %
30.11.2015 22:38 10,3 C 10,0 C 8,9 C 97 % 15 lf 1012,7 hPa 0,2 l/m 0 min 2 min 0 W/m 52,3 km/h (7 Bft) 93,62 %
30.11.2015 22:40 10,3 C 10,0 C 8,9 C 97 % 15 lf 1012,8 hPa 0,0 l/m 0 min 2 min 0 W/m 54,4 km/h (7 Bft) 93,62 %
30.11.2015 22:42 10,3 C 10,0 C 8,9 C 97 % 15 lf 1012,8 hPa 0,0 l/m 0 min 2 min 0 W/m 54,4 km/h (7 Bft) 89,13 %
30.11.2015 22:44 10,3 C 10,0 C 8,9 C 97 % 15 lf 1012,8 hPa 0,0 l/m 0 min 2 min 0 W/m 46,0 km/h (6 Bft) 95,74 %
30.11.2015 22:46 10,3 C 10,0 C 8,9 C 97 % 15 lf 1012,9 hPa 0,0 l/m 0 min 2 min 0 W/m 48,1 km/h (6 Bft) 91,49 %
30.11.2015 22:48 10,4 C 10,0 C 8,9 C 97 % 15 lf 1012,9 hPa 0,0 l/m 0 min 2 min 0 W/m 56,5 km/h (7 Bft) 95,74 %
30.11.2015 22:50 10,4 C 10,0 C 8,9 C 97 % 15 lf 1012,9 hPa 0,0 l/m 0 min 2 min 0 W/m 50,2 km/h (7 Bft) 91,49 %
30.11.2015 22:52 10,4 C 10,0 C 8,9 C 97 % 15 lf 1012,9 hPa 0,2 l/m 0 min 2 min 0 W/m 52,3 km/h (7 Bft) 89,36 %
30.11.2015 22:54 10,4 C 10,0 C 8,9 C 97 % 15 lf 1013,0 hPa 0,0 l/m 0 min 2 min 0 W/m 58,6 km/h (7 Bft) 91,30 %
30.11.2015 22:56 10,4 C 10,0 C 8,9 C 97 % 15 lf 1012,9 hPa 0,0 l/m 0 min 2 min 0 W/m 35,6 km/h (5 Bft) 91,49 %
30.11.2015 22:58 10,4 C 10,0 C 8,9 C 97 % 15 lf 1012,9 hPa 0,0 l/m 0 min 2 min 0 W/m 37,7 km/h (5 Bft) 91,49 %
30.11.2015 23:00 10,4 C 10,0 C 8,9 C 97 % 15 lf 1013,0 hPa 0,0 l/m 0 min 2 min 0 W/m 46,0 km/h (6 Bft) 93,62 %
30.11.2015 23:02 10,4 C 10,0 C 8,9 C 97 % 15 lf 1013,1 hPa 0,2 l/m 0 min 2 min 0 W/m 39,7 km/h (6 Bft) 93,62 %
30.11.2015 23:04 10,4 C 10,0 C 8,9 C 98 % 15 lf 1013,1 hPa 0,0 l/m 0 min 2 min 0 W/m 41,8 km/h (6 Bft) 91,49 %
30.11.2015 23:06 10,4 C 10,0 C 8,9 C 98 % 15 lf 1013,1 hPa 0,0 l/m 0 min 2 min 0 W/m 31,4 km/h (5 Bft) 91,30 %
30.11.2015 23:08 10,4 C 10,0 C 8,9 C 98 % 15 lf 1013,1 hPa 0,0 l/m 0 min 2 min 0 W/m 41,8 km/h (6 Bft) 93,62 %
30.11.2015 23:10 10,4 C 10,0 C 8,9 C 98 % 15 lf 1013,1 hPa 0,0 l/m 0 min 2 min 0 W/m 50,2 km/h (7 Bft) 91,49 %
30.11.2015 23:12 10,4 C 10,0 C 8,9 C 98 % 15 lf 1013,2 hPa 0,0 l/m 0 min 2 min 0 W/m 39,7 km/h (6 Bft) 91,49 %
30.11.2015 23:14 10,4 C 10,0 C 8,9 C 98 % 15 lf 1013,3 hPa 0,0 l/m 0 min 2 min 0 W/m 50,2 km/h (7 Bft) 95,74 %
30.11.2015 23:16 10,4 C 10,0 C 8,9 C 98 % 15 lf 1013,3 hPa 0,2 l/m 0 min 2 min 0 W/m 33,5 km/h (5 Bft) 93,62 %
30.11.2015 23:18 10,4 C 10,0 C 8,9 C 98 % 15 lf 1013,3 hPa 0,0 l/m 0 min 2 min 0 W/m 37,7 km/h (5 Bft) 95,65 %
30.11.2015 23:20 10,4 C 10,0 C 8,9 C 98 % 15 lf 1013,4 hPa 0,0 l/m 0 min 2 min 0 W/m 37,7 km/h (5 Bft) 93,62 %
30.11.2015 23:22 10,4 C 10,0 C 8,9 C 98 % 15 lf 1013,5 hPa 0,0 l/m 0 min 2 min 0 W/m 43,9 km/h (6 Bft) 95,74 %
30.11.2015 23:24 10,4 C 10,0 C 8,9 C 98 % 15 lf 1013,4 hPa 0,0 l/m 0 min 2 min 0 W/m 39,7 km/h (6 Bft) 91,49 %
30.11.2015 23:26 10,4 C 10,0 C 8,9 C 98 % 15 lf 1013,4 hPa 0,2 l/m 0 min 2 min 0 W/m 48,1 km/h (6 Bft) 95,74 %
30.11.2015 23:28 10,4 C 10,0 C 8,9 C 98 % 15 lf 1013,5 hPa 0,0 l/m 0 min 2 min 0 W/m 46,0 km/h (6 Bft) 93,62 %
30.11.2015 23:30 10,5 C 10,6 C 8,9 C 98 % 15 lf 1013,4 hPa 0,0 l/m 0 min 2 min 0 W/m 39,7 km/h (6 Bft) 95,65 %
30.11.2015 23:32 10,4 C 10,6 C 8,9 C 98 % 15 lf 1013,4 hPa 0,0 l/m 0 min 2 min 0 W/m 43,9 km/h (6 Bft) 93,62 %
30.11.2015 23:34 10,4 C 10,6 C 8,9 C 98 % 15 lf 1013,5 hPa 0,0 l/m 0 min 2 min 0 W/m 50,2 km/h (7 Bft) 97,87 %
30.11.2015 23:36 10,5 C 10,6 C 8,9 C 98 % 15 lf 1013,5 hPa 0,2 l/m 0 min 2 min 0 W/m 39,7 km/h (6 Bft) 100,00 %
30.11.2015 23:38 10,5 C 10,6 C 8,9 C 98 % 15 lf 1013,4 hPa 0,0 l/m 0 min 2 min 0 W/m 33,5 km/h (5 Bft) 97,87 %
30.11.2015 23:40 10,5 C 10,6 C 8,9 C 98 % 15 lf 1013,4 hPa 0,0 l/m 0 min 2 min 0 W/m 46,0 km/h (6 Bft) 97,87 %
30.11.2015 23:42 10,5 C 10,6 C 8,9 C 98 % 15 lf 1013,4 hPa 0,0 l/m 0 min 2 min 0 W/m 37,7 km/h (5 Bft) 100,00 %
30.11.2015 23:44 10,5 C 10,6 C 8,9 C 98 % 15 lf 1013,4 hPa 0,2 l/m 0 min 2 min 0 W/m 39,7 km/h (6 Bft) 97,87 %
30.11.2015 23:46 10,5 C 10,6 C 8,9 C 98 % 15 lf 1013,4 hPa 0,0 l/m 0 min 2 min 0 W/m 48,1 km/h (6 Bft) 97,87 %
30.11.2015 23:48 10,5 C 10,6 C 8,9 C 98 % 15 lf 1013,4 hPa 0,0 l/m 0 min 2 min 0 W/m 35,6 km/h (5 Bft) 95,74 %
30.11.2015 23:50 10,5 C 10,6 C 8,9 C 98 % 15 lf 1013,4 hPa 0,0 l/m 0 min 2 min 0 W/m 33,5 km/h (5 Bft) 100,00 %
30.11.2015 23:52 10,5 C 10,6 C 8,9 C 98 % 15 lf 1013,5 hPa 0,0 l/m 0 min 2 min 0 W/m 33,5 km/h (5 Bft) 91,30 %
30.11.2015 23:54 10,5 C 10,6 C 8,9 C 98 % 15 lf 1013,5 hPa 0,0 l/m 0 min 2 min 0 W/m 48,1 km/h (6 Bft) 97,87 %
30.11.2015 23:56 10,5 C 10,6 C 8,9 C 98 % 15 lf 1013,5 hPa 0,2 l/m 0 min 2 min 0 W/m 39,7 km/h (6 Bft) 97,87 %
30.11.2015 23:58 10,6 C 10,6 C 8,9 C 98 % 15 lf 1013,5 hPa 0,0 l/m 0 min 2 min 0 W/m 39,7 km/h (6 Bft) 100,00 %
_ Min-Zeit 08:36 10:50 07:38 06:18 03:34 00:00 - - - - 11:16 15:14
Minimum _ 7,2 C 6,7 C 5,6 C 80 % 0 lf 1010,9 hPa - - - - 4,2 km/h (1 Bft) 80,85 %
_ Max-Zeit 17:40 23:30 20:10 23:04 00:00 08:38 00:06 00:00 00:00 12:28 17:34 00:06
Maximum _ 10,6 C 10,6 C 8,9 C 98 % 15 lf 1018,7 hPa 0,2 l/m 0 min 2 min 69 W/m 86,8 km/h
W (9 Bft)
100,00 %
Durchschnitt _ 9,0 C 8,7 C 7,4 C 91 % 10 lf 1014,2 hPa #16,6 l/m #0 min. #14:27 h 28 W/m 32,1 km/h (5 Bft) 95,87 %
© 2015 W. Hausmann